Wetterdaten: Donnerstag, 02.03.2017
Datum Zeit Temp. Aussen Temp. o. S. +5cm Feuchte Auss BlattFeu 1 Luftdruck Regen Sonnenschein Regendauer Solar Windben Empfang
02.03.2017 00:00 7,1 C 7,8 C 6,1 C 98 % 15 lf 996,6 hPa 0,0 l/m 0 min 0 min 0 W/m 27,2 km/h (4 Bft) 95,74 %
02.03.2017 00:02 7,2 C 7,8 C 6,1 C 98 % 15 lf 996,7 hPa 0,0 l/m 0 min 2 min 0 W/m 25,1 km/h (4 Bft) 100,00 %
02.03.2017 00:06 7,4 C 7,8 C 6,1 C 98 % 15 lf 996,6 hPa 0,0 l/m 0 min 2 min 0 W/m 31,4 km/h (5 Bft) 96,81 %
02.03.2017 00:08 7,5 C 7,8 C 6,7 C 98 % 15 lf 996,6 hPa 0,0 l/m 0 min 2 min 0 W/m 29,3 km/h (5 Bft) 97,87 %
02.03.2017 00:10 7,6 C 7,8 C 6,7 C 98 % 15 lf 996,7 hPa 0,0 l/m 0 min 2 min 0 W/m 27,2 km/h (4 Bft) 95,74 %
02.03.2017 00:12 7,7 C 7,8 C 6,7 C 98 % 15 lf 996,7 hPa 0,2 l/m 0 min 2 min 0 W/m 20,9 km/h (4 Bft) 93,62 %
02.03.2017 00:14 7,7 C 7,8 C 6,7 C 98 % 15 lf 996,7 hPa 0,0 l/m 0 min 2 min 0 W/m 18,8 km/h (3 Bft) 95,74 %
02.03.2017 00:16 7,7 C 7,8 C 6,7 C 98 % 15 lf 996,7 hPa 0,2 l/m 0 min 2 min 0 W/m 33,5 km/h (5 Bft) 93,48 %
02.03.2017 00:18 7,8 C 7,8 C 6,7 C 98 % 15 lf 996,7 hPa 0,0 l/m 0 min 2 min 0 W/m 33,5 km/h (5 Bft) 95,74 %
02.03.2017 00:20 7,8 C 7,8 C 6,7 C 98 % 15 lf 996,8 hPa 0,2 l/m 0 min 2 min 0 W/m 31,4 km/h (5 Bft) 97,87 %
02.03.2017 00:22 7,8 C 7,8 C 6,7 C 98 % 15 lf 996,7 hPa 0,0 l/m 0 min 2 min 0 W/m 25,1 km/h (4 Bft) 97,87 %
02.03.2017 00:24 7,8 C 7,8 C 6,7 C 98 % 15 lf 996,8 hPa 0,0 l/m 0 min 2 min 0 W/m 31,4 km/h (5 Bft) 97,14 %
02.03.2017 00:26 7,8 C 7,8 C 6,7 C 98 % 15 lf 997,0 hPa 0,0 l/m 0 min 2 min 0 W/m 29,3 km/h (5 Bft) 98,31 %
02.03.2017 00:28 7,8 C 7,8 C 6,7 C 98 % 15 lf 997,0 hPa 0,0 l/m 0 min 2 min 0 W/m 23,0 km/h (4 Bft) 97,83 %
02.03.2017 00:30 7,8 C 7,8 C 6,7 C 98 % 15 lf 997,0 hPa 0,0 l/m 0 min 2 min 0 W/m 23,0 km/h (4 Bft) 95,74 %
02.03.2017 00:32 7,8 C 7,8 C 6,7 C 98 % 15 lf 997,1 hPa 0,0 l/m 0 min 2 min 0 W/m 33,5 km/h (5 Bft) 95,74 %
02.03.2017 00:34 7,8 C 7,8 C 6,7 C 98 % 15 lf 997,0 hPa 0,0 l/m 0 min 2 min 0 W/m 41,8 km/h (6 Bft) 95,74 %
02.03.2017 00:36 7,8 C 7,8 C 6,7 C 98 % 15 lf 997,1 hPa 0,0 l/m 0 min 2 min 0 W/m 39,7 km/h (6 Bft) 93,62 %
02.03.2017 00:38 7,8 C 7,8 C 6,7 C 98 % 15 lf 997,1 hPa 0,0 l/m 0 min 2 min 0 W/m 41,8 km/h (6 Bft) 93,62 %
02.03.2017 00:40 7,8 C 7,8 C 6,1 C 98 % 15 lf 997,1 hPa 0,0 l/m 0 min 2 min 0 W/m 37,7 km/h (5 Bft) 97,83 %
02.03.2017 00:42 7,8 C 7,8 C 6,1 C 98 % 15 lf 997,0 hPa 0,0 l/m 0 min 2 min 0 W/m 35,6 km/h (5 Bft) 95,74 %
02.03.2017 00:44 7,8 C 7,8 C 6,1 C 98 % 15 lf 997,3 hPa 0,0 l/m 0 min 2 min 0 W/m 29,3 km/h (5 Bft) 95,74 %
02.03.2017 00:46 7,8 C 7,8 C 6,1 C 98 % 15 lf 997,4 hPa 0,0 l/m 0 min 0 min 0 W/m 37,7 km/h (5 Bft) 97,87 %
02.03.2017 00:48 7,8 C 7,8 C 6,1 C 98 % 15 lf 997,4 hPa 0,0 l/m 0 min 0 min 0 W/m 33,5 km/h (5 Bft) 97,87 %
02.03.2017 00:50 7,8 C 7,8 C 6,1 C 98 % 15 lf 997,4 hPa 0,0 l/m 0 min 0 min 0 W/m 37,7 km/h (5 Bft) 97,87 %
02.03.2017 00:52 7,7 C 7,8 C 6,1 C 98 % 15 lf 997,5 hPa 0,0 l/m 0 min 0 min 0 W/m 33,5 km/h (5 Bft) 95,65 %
02.03.2017 00:54 7,7 C 7,8 C 6,1 C 98 % 15 lf 997,6 hPa 0,0 l/m 0 min 2 min 0 W/m 27,2 km/h (4 Bft) 97,87 %
02.03.2017 00:56 7,7 C 7,8 C 6,1 C 98 % 15 lf 997,6 hPa 0,0 l/m 0 min 2 min 0 W/m 29,3 km/h (5 Bft) 97,87 %
02.03.2017 00:58 7,7 C 7,2 C 6,1 C 98 % 15 lf 997,7 hPa 0,0 l/m 0 min 2 min 0 W/m 27,2 km/h (4 Bft) 97,87 %
02.03.2017 01:00 7,7 C 7,2 C 6,1 C 98 % 15 lf 997,6 hPa 0,0 l/m 0 min 0 min 0 W/m 39,7 km/h (6 Bft) 97,87 %
02.03.2017 01:02 7,7 C 7,2 C 6,1 C 98 % 15 lf 997,7 hPa 0,0 l/m 0 min 2 min 0 W/m 31,4 km/h (5 Bft) 95,65 %
02.03.2017 01:04 7,6 C 7,2 C 6,1 C 98 % 15 lf 997,7 hPa 0,0 l/m 0 min 2 min 0 W/m 46,0 km/h (6 Bft) 97,87 %
02.03.2017 01:06 7,6 C 7,2 C 6,1 C 98 % 15 lf 997,8 hPa 0,0 l/m 0 min 0 min 0 W/m 20,9 km/h (4 Bft) 97,87 %
02.03.2017 01:08 7,6 C 7,2 C 6,1 C 98 % 15 lf 997,9 hPa 0,0 l/m 0 min 2 min 0 W/m 37,7 km/h (5 Bft) 97,87 %
02.03.2017 01:10 7,6 C 7,2 C 6,1 C 98 % 15 lf 997,7 hPa 0,0 l/m 0 min 2 min 0 W/m 37,7 km/h (5 Bft) 100,00 %
02.03.2017 01:12 7,5 C 7,2 C 5,6 C 98 % 15 lf 997,7 hPa 0,0 l/m 0 min 2 min 0 W/m 29,3 km/h (5 Bft) 100,00 %
02.03.2017 01:14 7,5 C 7,2 C 5,6 C 98 % 15 lf 997,7 hPa 0,0 l/m 0 min 0 min 0 W/m 25,1 km/h (4 Bft) 100,00 %
02.03.2017 01:16 7,5 C 7,2 C 5,6 C 98 % 15 lf 997,8 hPa 0,0 l/m 0 min 0 min 0 W/m 27,2 km/h (4 Bft) 100,00 %
02.03.2017 01:18 7,4 C 7,2 C 5,6 C 98 % 15 lf 997,8 hPa 0,0 l/m 0 min 0 min 0 W/m 27,2 km/h (4 Bft) 100,00 %
02.03.2017 01:20 7,4 C 7,2 C 5,6 C 98 % 15 lf 997,9 hPa 0,0 l/m 0 min 0 min 0 W/m 20,9 km/h (4 Bft) 95,74 %
02.03.2017 01:22 7,4 C 7,2 C 5,6 C 98 % 15 lf 997,9 hPa 0,0 l/m 0 min 0 min 0 W/m 35,6 km/h (5 Bft) 95,74 %
02.03.2017 01:24 7,3 C 7,2 C 5,6 C 97 % 15 lf 997,9 hPa 0,0 l/m 0 min 0 min 0 W/m 31,4 km/h (5 Bft) 100,00 %
02.03.2017 01:26 7,3 C 7,2 C 5,6 C 97 % 15 lf 997,9 hPa 0,0 l/m 0 min 2 min 0 W/m 29,3 km/h (5 Bft) 91,30 %
02.03.2017 01:28 7,3 C 7,2 C 5,6 C 97 % 15 lf 997,9 hPa 0,0 l/m 0 min 0 min 0 W/m 23,0 km/h (4 Bft) 100,00 %
02.03.2017 01:30 7,3 C 6,7 C 5,6 C 97 % 15 lf 997,9 hPa 0,0 l/m 0 min 0 min 0 W/m 25,1 km/h (4 Bft) 95,74 %
02.03.2017 01:32 7,3 C 6,7 C 5,0 C 97 % 15 lf 998,0 hPa 0,0 l/m 0 min 0 min 0 W/m 23,0 km/h (4 Bft) 97,87 %
02.03.2017 01:34 7,2 C 6,7 C 5,0 C 97 % 15 lf 998,0 hPa 0,0 l/m 0 min 0 min 0 W/m 25,1 km/h (4 Bft) 95,74 %
02.03.2017 01:36 7,2 C 6,7 C 5,0 C 97 % 15 lf 997,9 hPa 0,0 l/m 0 min 0 min 0 W/m 27,2 km/h (4 Bft) 95,74 %
02.03.2017 01:38 7,2 C 6,7 C 5,0 C 97 % 15 lf 997,9 hPa 0,0 l/m 0 min 0 min 0 W/m 27,2 km/h (4 Bft) 94,29 %
02.03.2017 01:40 7,1 C 6,7 C 5,0 C 97 % 15 lf 997,9 hPa 0,0 l/m 0 min 0 min 0 W/m 20,9 km/h (4 Bft) 93,10 %
02.03.2017 01:42 7,1 C 6,7 C 5,0 C 97 % 15 lf 997,9 hPa 0,0 l/m 0 min 0 min 0 W/m 16,7 km/h (3 Bft) 88,89 %
02.03.2017 01:44 7,1 C 6,7 C 5,0 C 97 % 15 lf 997,9 hPa 0,0 l/m 0 min 0 min 0 W/m 20,9 km/h (4 Bft) 93,48 %
02.03.2017 01:46 7,0 C 6,7 C 5,0 C 97 % 15 lf 998,0 hPa 0,0 l/m 0 min 0 min 0 W/m 23,0 km/h (4 Bft) 93,62 %
02.03.2017 01:48 6,9 C 6,7 C 5,0 C 97 % 15 lf 998,0 hPa 0,0 l/m 0 min 0 min 0 W/m 31,4 km/h (5 Bft) 91,49 %
02.03.2017 01:50 6,9 C 6,7 C 5,0 C 97 % 15 lf 998,1 hPa 0,0 l/m 0 min 2 min 0 W/m 33,5 km/h (5 Bft) 93,62 %
02.03.2017 01:52 6,9 C 6,7 C 5,0 C 97 % 15 lf 998,1 hPa 0,0 l/m 0 min 2 min 0 W/m 33,5 km/h (5 Bft) 91,49 %
02.03.2017 01:54 6,9 C 6,7 C 4,4 C 97 % 15 lf 998,0 hPa 0,0 l/m 0 min 0 min 0 W/m 25,1 km/h (4 Bft) 95,74 %
02.03.2017 01:56 6,9 C 6,7 C 4,4 C 97 % 15 lf 998,1 hPa 0,0 l/m 0 min 0 min 0 W/m 27,2 km/h (4 Bft) 93,48 %
02.03.2017 01:58 6,9 C 6,1 C 4,4 C 97 % 15 lf 998,1 hPa 0,0 l/m 0 min 0 min 0 W/m 31,4 km/h (5 Bft) 91,49 %
02.03.2017 02:00 6,9 C 6,1 C 4,4 C 97 % 15 lf 998,2 hPa 0,0 l/m 0 min 0 min 0 W/m 20,9 km/h (4 Bft) 93,62 %
02.03.2017 02:02 6,8 C 6,1 C 4,4 C 97 % 15 lf 998,1 hPa 0,0 l/m 0 min 0 min 0 W/m 20,9 km/h (4 Bft) 93,62 %
02.03.2017 02:04 6,8 C 6,1 C 4,4 C 96 % 15 lf 998,1 hPa 0,0 l/m 0 min 0 min 0 W/m 23,0 km/h (4 Bft) 91,49 %
02.03.2017 02:06 6,8 C 6,1 C 4,4 C 96 % 15 lf 998,0 hPa 0,0 l/m 0 min 0 min 0 W/m 20,9 km/h (4 Bft) 97,87 %
02.03.2017 02:08 6,8 C 6,1 C 4,4 C 96 % 15 lf 998,0 hPa 0,0 l/m 0 min 0 min 0 W/m 23,0 km/h (4 Bft) 97,83 %
02.03.2017 02:10 6,8 C 6,7 C 5,0 C 96 % 15 lf 998,1 hPa 0,0 l/m 0 min 0 min 0 W/m 20,9 km/h (4 Bft) 97,87 %
02.03.2017 02:12 6,8 C 6,7 C 5,0 C 96 % 15 lf 998,1 hPa 0,0 l/m 0 min 0 min 0 W/m 23,0 km/h (4 Bft) 95,74 %
02.03.2017 02:14 6,8 C 6,7 C 5,0 C 96 % 15 lf 998,2 hPa 0,0 l/m 0 min 0 min 0 W/m 23,0 km/h (4 Bft) 95,74 %
02.03.2017 02:16 6,8 C 6,7 C 5,0 C 96 % 15 lf 998,1 hPa 0,0 l/m 0 min 0 min 0 W/m 23,0 km/h (4 Bft) 95,74 %
02.03.2017 02:18 6,8 C 6,7 C 5,0 C 96 % 15 lf 998,1 hPa 0,0 l/m 0 min 0 min 0 W/m 29,3 km/h (5 Bft) 97,87 %
02.03.2017 02:20 6,8 C 6,7 C 5,0 C 96 % 15 lf 998,1 hPa 0,0 l/m 0 min 0 min 0 W/m 33,5 km/h (5 Bft) 95,65 %
02.03.2017 02:22 6,9 C 6,7 C 5,0 C 96 % 15 lf 998,1 hPa 0,0 l/m 0 min 2 min 0 W/m 27,2 km/h (4 Bft) 97,87 %
02.03.2017 02:24 6,9 C 6,7 C 5,0 C 96 % 15 lf 998,0 hPa 0,2 l/m 0 min 0 min 0 W/m 33,5 km/h (5 Bft) 93,62 %
02.03.2017 02:26 6,9 C 6,7 C 5,0 C 96 % 15 lf 998,0 hPa 0,0 l/m 0 min 0 min 0 W/m 29,3 km/h (5 Bft) 97,87 %
02.03.2017 02:28 6,9 C 6,7 C 5,0 C 96 % 14 lf 998,1 hPa 0,0 l/m 0 min 0 min 0 W/m 27,2 km/h (4 Bft) 97,87 %
02.03.2017 02:30 6,9 C 6,7 C 5,0 C 95 % 14 lf 998,1 hPa 0,0 l/m 0 min 0 min 0 W/m 23,0 km/h (4 Bft) 97,83 %
02.03.2017 02:32 6,9 C 6,7 C 5,0 C 96 % 14 lf 998,1 hPa 0,0 l/m 0 min 0 min 0 W/m 27,2 km/h (4 Bft) 93,62 %
02.03.2017 02:34 6,9 C 6,7 C 5,0 C 96 % 13 lf 998,2 hPa 0,0 l/m 0 min 0 min 0 W/m 23,0 km/h (4 Bft) 91,49 %
02.03.2017 02:36 7,0 C 6,7 C 5,0 C 95 % 15 lf 998,2 hPa 0,0 l/m 0 min 0 min 0 W/m 25,1 km/h (4 Bft) 93,62 %
02.03.2017 02:38 7,0 C 6,7 C 5,0 C 95 % 15 lf 998,2 hPa 0,0 l/m 0 min 2 min 0 W/m 27,2 km/h (4 Bft) 97,87 %
02.03.2017 02:40 7,1 C 6,7 C 5,0 C 95 % 15 lf 998,2 hPa 0,0 l/m 0 min 2 min 0 W/m 20,9 km/h (4 Bft) 95,74 %
02.03.2017 02:42 7,1 C 6,7 C 5,0 C 95 % 15 lf 998,2 hPa 0,0 l/m 0 min 2 min 0 W/m 31,4 km/h (5 Bft) 95,65 %
02.03.2017 02:44 7,1 C 6,7 C 5,0 C 95 % 15 lf 998,2 hPa 0,0 l/m 0 min 2 min 0 W/m 27,2 km/h (4 Bft) 95,74 %
02.03.2017 02:46 7,1 C 6,7 C 5,0 C 95 % 15 lf 998,2 hPa 0,0 l/m 0 min 2 min 0 W/m 29,3 km/h (5 Bft) 97,87 %
02.03.2017 02:48 7,1 C 6,7 C 5,0 C 95 % 15 lf 998,2 hPa 0,2 l/m 0 min 2 min 0 W/m 29,3 km/h (5 Bft) 97,87 %
02.03.2017 02:50 7,1 C 6,7 C 5,0 C 95 % 15 lf 998,1 hPa 0,2 l/m 0 min 2 min 0 W/m 33,5 km/h (5 Bft) 93,62 %
02.03.2017 02:52 7,1 C 6,7 C 5,0 C 95 % 15 lf 998,1 hPa 0,0 l/m 0 min 2 min 0 W/m 25,1 km/h (4 Bft) 95,74 %
02.03.2017 02:54 7,1 C 6,7 C 5,0 C 95 % 15 lf 998,1 hPa 0,0 l/m 0 min 2 min 0 W/m 25,1 km/h (4 Bft) 95,65 %
02.03.2017 02:56 7,1 C 6,7 C 5,0 C 95 % 15 lf 998,1 hPa 0,0 l/m 0 min 2 min 0 W/m 23,0 km/h (4 Bft) 93,62 %
02.03.2017 02:58 7,1 C 6,7 C 5,0 C 95 % 15 lf 998,1 hPa 0,0 l/m 0 min 2 min 0 W/m 35,6 km/h (5 Bft) 93,62 %
02.03.2017 03:00 7,1 C 6,7 C 5,0 C 95 % 15 lf 998,1 hPa 0,0 l/m 0 min 2 min 0 W/m 20,9 km/h (4 Bft) 95,74 %
02.03.2017 03:02 7,1 C 6,7 C 5,0 C 95 % 15 lf 998,0 hPa 0,0 l/m 0 min 2 min 0 W/m 20,9 km/h (4 Bft) 93,62 %
02.03.2017 03:04 7,1 C 6,7 C 5,0 C 95 % 15 lf 998,0 hPa 0,0 l/m 0 min 0 min 0 W/m 25,1 km/h (4 Bft) 93,62 %
02.03.2017 03:06 7,1 C 6,7 C 5,0 C 95 % 15 lf 998,0 hPa 0,0 l/m 0 min 0 min 0 W/m 25,1 km/h (4 Bft) 95,65 %
02.03.2017 03:08 7,1 C 6,7 C 5,0 C 95 % 15 lf 998,0 hPa 0,0 l/m 0 min 0 min 0 W/m 31,4 km/h (5 Bft) 95,74 %
02.03.2017 03:10 7,1 C 6,7 C 5,0 C 95 % 15 lf 998,0 hPa 0,0 l/m 0 min 0 min 0 W/m 33,5 km/h (5 Bft) 93,62 %
02.03.2017 03:12 7,1 C 6,7 C 5,0 C 95 % 15 lf 998,0 hPa 0,0 l/m 0 min 0 min 0 W/m 33,5 km/h (5 Bft) 91,49 %
02.03.2017 03:14 7,1 C 6,7 C 5,0 C 95 % 15 lf 998,0 hPa 0,0 l/m 0 min 0 min 0 W/m 35,6 km/h (5 Bft) 95,74 %
02.03.2017 03:16 7,1 C 6,7 C 5,0 C 95 % 15 lf 998,0 hPa 0,0 l/m 0 min 0 min 0 W/m 46,0 km/h (6 Bft) 93,62 %
02.03.2017 03:18 7,2 C 6,7 C 5,0 C 95 % 15 lf 998,0 hPa 0,0 l/m 0 min 0 min 0 W/m 37,7 km/h (5 Bft) 93,48 %
02.03.2017 03:20 7,2 C 6,7 C 5,0 C 95 % 15 lf 998,1 hPa 0,0 l/m 0 min 0 min 0 W/m 35,6 km/h (5 Bft) 95,74 %
02.03.2017 03:22 7,2 C 6,7 C 5,0 C 95 % 15 lf 997,9 hPa 0,0 l/m 0 min 0 min 0 W/m 37,7 km/h (5 Bft) 89,36 %
02.03.2017 03:24 7,2 C 6,7 C 5,0 C 95 % 15 lf 998,0 hPa 0,0 l/m 0 min 0 min 0 W/m 50,2 km/h (7 Bft) 87,23 %
02.03.2017 03:26 7,2 C 6,7 C 5,0 C 95 % 15 lf 998,0 hPa 0,2 l/m 0 min 2 min 0 W/m 46,0 km/h (6 Bft) 89,36 %
02.03.2017 03:28 7,2 C 6,7 C 5,6 C 95 % 15 lf 998,1 hPa 0,0 l/m 0 min 2 min 0 W/m 54,4 km/h (7 Bft) 91,49 %
02.03.2017 03:30 7,2 C 6,7 C 5,6 C 95 % 15 lf 998,0 hPa 0,0 l/m 0 min 2 min 0 W/m 43,9 km/h (6 Bft) 93,48 %
02.03.2017 03:32 7,2 C 6,7 C 5,6 C 94 % 15 lf 998,2 hPa 0,0 l/m 0 min 2 min 0 W/m 46,0 km/h (6 Bft) 89,36 %
02.03.2017 03:34 7,2 C 6,1 C 5,6 C 94 % 15 lf 998,1 hPa 0,0 l/m 0 min 2 min 0 W/m 52,3 km/h (7 Bft) 100,00 %
02.03.2017 03:36 7,2 C 6,1 C 5,6 C 93 % 15 lf 998,2 hPa 0,0 l/m 0 min 0 min 0 W/m 56,5 km/h (7 Bft) 97,87 %
02.03.2017 03:38 7,2 C 6,1 C 5,6 C 93 % 15 lf 998,4 hPa 0,0 l/m 0 min 0 min 0 W/m 54,4 km/h (7 Bft) 91,49 %
02.03.2017 03:40 7,2 C 6,7 C 5,6 C 93 % 15 lf 998,2 hPa 0,0 l/m 0 min 2 min 0 W/m 60,7 km/h (7 Bft) 91,30 %
02.03.2017 03:42 7,3 C 6,7 C 5,6 C 92 % 14 lf 998,5 hPa 0,0 l/m 0 min 2 min 0 W/m 48,1 km/h (6 Bft) 93,62 %
02.03.2017 03:44 7,3 C 6,7 C 5,6 C 91 % 14 lf 998,4 hPa 0,0 l/m 0 min 0 min 0 W/m 43,9 km/h (6 Bft) 95,74 %
02.03.2017 03:46 7,3 C 6,7 C 5,6 C 91 % 13 lf 998,5 hPa 0,0 l/m 0 min 0 min 0 W/m 60,7 km/h (7 Bft) 93,62 %
02.03.2017 03:48 7,4 C 6,7 C 5,6 C 90 % 9 lf 998,2 hPa 0,0 l/m 0 min 2 min 0 W/m 62,8 km/h (8 Bft) 95,74 %
02.03.2017 03:50 7,4 C 6,7 C 5,6 C 89 % 6 lf 998,3 hPa 0,0 l/m 0 min 2 min 0 W/m 46,0 km/h (6 Bft) 93,62 %
02.03.2017 03:52 7,4 C 6,7 C 5,6 C 88 % 4 lf 998,5 hPa 0,0 l/m 0 min 2 min 0 W/m 50,2 km/h (7 Bft) 97,83 %
02.03.2017 03:54 7,5 C 6,7 C 5,6 C 88 % 3 lf 998,5 hPa 0,0 l/m 0 min 2 min 0 W/m 43,9 km/h (6 Bft) 100,00 %
02.03.2017 03:56 7,5 C 6,7 C 5,6 C 87 % 1 lf 998,5 hPa 0,0 l/m 0 min 2 min 0 W/m 48,1 km/h (6 Bft) 100,00 %
02.03.2017 03:58 7,6 C 6,7 C 5,6 C 87 % 0 lf 998,6 hPa 0,0 l/m 0 min 2 min 0 W/m 39,7 km/h (6 Bft) 100,00 %
02.03.2017 04:00 7,6 C 6,7 C 5,6 C 87 % 0 lf 998,7 hPa 0,0 l/m 0 min 0 min 0 W/m 39,7 km/h (6 Bft) 95,74 %
02.03.2017 04:06 7,6 C 6,7 C 5,6 C 86 % 0 lf 998,7 hPa 0,0 l/m 0 min 0 min 0 W/m 46,0 km/h (6 Bft) 90,91 %
02.03.2017 04:08 7,6 C 6,7 C 5,6 C 85 % 0 lf 998,7 hPa 0,0 l/m 0 min 0 min 0 W/m 62,8 km/h (8 Bft) 97,87 %
02.03.2017 04:10 7,6 C 6,7 C 5,6 C 85 % 0 lf 998,8 hPa 0,0 l/m 0 min 2 min 0 W/m 52,3 km/h (7 Bft) 95,74 %
02.03.2017 04:12 7,6 C 6,7 C 5,6 C 85 % 0 lf 998,7 hPa 0,0 l/m 0 min 2 min 0 W/m 54,4 km/h (7 Bft) 100,00 %
02.03.2017 04:14 7,6 C 6,7 C 5,6 C 84 % 0 lf 998,8 hPa 0,0 l/m 0 min 2 min 0 W/m 48,1 km/h (6 Bft) 100,00 %
02.03.2017 04:16 7,6 C 6,7 C 5,6 C 84 % 0 lf 998,9 hPa 0,0 l/m 0 min 0 min 0 W/m 37,7 km/h (5 Bft) 97,83 %
02.03.2017 04:18 7,6 C 6,7 C 5,6 C 84 % 0 lf 998,7 hPa 0,0 l/m 0 min 0 min 0 W/m 43,9 km/h (6 Bft) 100,00 %
02.03.2017 04:20 7,6 C 6,7 C 5,6 C 83 % 0 lf 998,8 hPa 0,0 l/m 0 min 0 min 0 W/m 52,3 km/h (7 Bft) 100,00 %
02.03.2017 04:22 7,6 C 6,7 C 5,6 C 83 % 0 lf 998,9 hPa 0,0 l/m 0 min 0 min 0 W/m 46,0 km/h (6 Bft) 97,87 %
02.03.2017 04:24 7,6 C 6,7 C 5,6 C 83 % 0 lf 998,8 hPa 0,0 l/m 0 min 0 min 0 W/m 52,3 km/h (7 Bft) 97,87 %
02.03.2017 04:26 7,6 C 6,7 C 5,6 C 83 % 0 lf 998,8 hPa 0,0 l/m 0 min 0 min 0 W/m 56,5 km/h (7 Bft) 95,74 %
02.03.2017 04:28 7,6 C 6,7 C 5,6 C 82 % 0 lf 999,0 hPa 0,0 l/m 0 min 0 min 0 W/m 56,5 km/h (7 Bft) 97,83 %
02.03.2017 04:30 7,6 C 6,7 C 5,6 C 82 % 0 lf 998,8 hPa 0,0 l/m 0 min 0 min 0 W/m 48,1 km/h (6 Bft) 97,87 %
02.03.2017 04:32 7,6 C 6,7 C 5,6 C 82 % 0 lf 998,9 hPa 0,0 l/m 0 min 0 min 0 W/m 41,8 km/h (6 Bft) 97,87 %
02.03.2017 04:34 7,6 C 6,1 C 5,6 C 82 % 0 lf 999,0 hPa 0,0 l/m 0 min 0 min 0 W/m 50,2 km/h (7 Bft) 95,74 %
02.03.2017 04:36 7,6 C 6,1 C 5,0 C 81 % 0 lf 999,0 hPa 0,0 l/m 0 min 0 min 0 W/m 50,2 km/h (7 Bft) 97,87 %
02.03.2017 04:38 7,5 C 6,1 C 5,0 C 81 % 0 lf 999,0 hPa 0,0 l/m 0 min 0 min 0 W/m 48,1 km/h (6 Bft) 93,62 %
02.03.2017 04:40 7,5 C 6,1 C 5,0 C 81 % 0 lf 999,1 hPa 0,0 l/m 0 min 0 min 0 W/m 54,4 km/h (7 Bft) 97,83 %
02.03.2017 04:42 7,4 C 6,1 C 5,0 C 81 % 0 lf 999,3 hPa 0,0 l/m 0 min 0 min 0 W/m 71,1 km/h (8 Bft) 95,74 %
02.03.2017 04:44 7,4 C 6,1 C 5,0 C 80 % 0 lf 999,2 hPa 0,0 l/m 0 min 0 min 0 W/m 50,2 km/h (7 Bft) 97,87 %
02.03.2017 04:46 7,4 C 6,1 C 5,0 C 80 % 0 lf 999,4 hPa 0,0 l/m 0 min 0 min 0 W/m 58,6 km/h (7 Bft) 89,36 %
02.03.2017 04:48 7,4 C 6,1 C 5,0 C 80 % 0 lf 999,3 hPa 0,0 l/m 0 min 0 min 0 W/m 58,6 km/h (7 Bft) 97,87 %
02.03.2017 04:50 7,4 C 6,1 C 5,0 C 79 % 0 lf 999,3 hPa 0,0 l/m 0 min 0 min 0 W/m 60,7 km/h (7 Bft) 95,74 %
02.03.2017 04:52 7,4 C 6,1 C 5,6 C 79 % 0 lf 999,4 hPa 0,0 l/m 0 min 0 min 0 W/m 54,4 km/h (7 Bft) 97,83 %
02.03.2017 04:54 7,4 C 6,1 C 5,0 C 79 % 0 lf 999,3 hPa 0,0 l/m 0 min 0 min 0 W/m 48,1 km/h (6 Bft) 97,87 %
02.03.2017 04:56 7,4 C 6,1 C 5,0 C 79 % 0 lf 999,5 hPa 0,0 l/m 0 min 0 min 0 W/m 39,7 km/h (6 Bft) 95,74 %
02.03.2017 04:58 7,4 C 6,1 C 5,0 C 79 % 0 lf 999,5 hPa 0,0 l/m 0 min 0 min 0 W/m 48,1 km/h (6 Bft) 95,74 %
02.03.2017 05:00 7,4 C 6,1 C 5,0 C 79 % 0 lf 999,6 hPa 0,0 l/m 0 min 0 min 0 W/m 39,7 km/h (6 Bft) 93,62 %
02.03.2017 05:02 7,4 C 6,1 C 5,0 C 79 % 0 lf 999,5 hPa 0,0 l/m 0 min 0 min 0 W/m 46,0 km/h (6 Bft) 93,62 %
02.03.2017 05:04 7,4 C 6,1 C 5,0 C 79 % 0 lf 999,5 hPa 0,0 l/m 0 min 0 min 0 W/m 46,0 km/h (6 Bft) 97,83 %
02.03.2017 05:06 7,3 C 6,7 C 5,0 C 79 % 0 lf 999,4 hPa 0,0 l/m 0 min 0 min 0 W/m 37,7 km/h (5 Bft) 95,74 %
02.03.2017 05:08 7,3 C 6,7 C 5,0 C 79 % 1 lf 999,6 hPa 0,0 l/m 0 min 0 min 0 W/m 43,9 km/h (6 Bft) 97,87 %
02.03.2017 05:10 7,3 C 7,2 C 5,0 C 79 % 2 lf 999,5 hPa 0,0 l/m 0 min 2 min 0 W/m 52,3 km/h (7 Bft) 91,43 %
02.03.2017 05:12 7,3 C 7,2 C 5,0 C 79 % 0 lf 999,6 hPa 0,0 l/m 0 min 2 min 0 W/m 56,5 km/h (7 Bft) 95,08 %
02.03.2017 05:14 7,2 C 7,2 C 5,0 C 78 % 0 lf 999,9 hPa 0,0 l/m 0 min 0 min 0 W/m 60,7 km/h (7 Bft) 91,49 %
02.03.2017 05:16 7,2 C 7,2 C 5,0 C 77 % 0 lf 999,8 hPa 0,0 l/m 0 min 0 min 0 W/m 56,5 km/h (7 Bft) 93,62 %
02.03.2017 05:18 7,2 C 7,2 C 5,6 C 76 % 1 lf 999,9 hPa 0,0 l/m 0 min 0 min 0 W/m 73,2 km/h (8 Bft) 93,62 %
02.03.2017 05:20 7,2 C 7,2 C 5,6 C 76 % 0 lf 999,9 hPa 0,0 l/m 0 min 0 min 0 W/m 46,0 km/h (6 Bft) 91,30 %
02.03.2017 05:22 7,2 C 7,2 C 5,6 C 76 % 0 lf 1000,0 hPa 0,0 l/m 0 min 0 min 0 W/m 43,9 km/h (6 Bft) 91,49 %
02.03.2017 05:24 7,2 C 7,2 C 5,0 C 76 % 1 lf 1000,3 hPa 0,0 l/m 0 min 2 min 0 W/m 69,0 km/h (8 Bft) 95,74 %
02.03.2017 05:26 7,1 C 7,2 C 5,0 C 74 % 0 lf 1000,1 hPa 0,0 l/m 0 min 0 min 0 W/m 73,2 km/h (8 Bft) 95,74 %
02.03.2017 05:28 7,1 C 7,2 C 5,0 C 74 % 0 lf 1000,3 hPa 0,0 l/m 0 min 0 min 0 W/m 58,6 km/h (7 Bft) 91,49 %
02.03.2017 05:30 7,0 C 7,2 C 5,0 C 73 % 0 lf 1000,4 hPa 0,0 l/m 0 min 0 min 0 W/m 64,9 km/h (8 Bft) 93,62 %
02.03.2017 05:32 6,9 C 7,2 C 5,0 C 73 % 0 lf 1000,4 hPa 0,0 l/m 0 min 0 min 0 W/m 81,6 km/h (9 Bft) 95,65 %
02.03.2017 05:34 6,9 C 7,2 C 5,0 C 72 % 0 lf 1000,5 hPa 0,0 l/m 0 min 0 min 0 W/m 66,9 km/h (8 Bft) 93,62 %
02.03.2017 05:36 6,9 C 6,7 C 5,0 C 72 % 0 lf 1000,6 hPa 0,0 l/m 0 min 0 min 0 W/m 52,3 km/h (7 Bft) 91,49 %
02.03.2017 05:38 6,8 C 6,7 C 4,4 C 72 % 0 lf 1000,5 hPa 0,0 l/m 0 min 0 min 0 W/m 64,9 km/h (8 Bft) 95,74 %
02.03.2017 05:40 6,7 C 6,7 C 4,4 C 72 % 0 lf 1000,8 hPa 0,0 l/m 0 min 0 min 0 W/m 58,6 km/h (7 Bft) 97,87 %
02.03.2017 05:42 6,7 C 6,7 C 4,4 C 72 % 0 lf 1000,8 hPa 0,0 l/m 0 min 0 min 1 W/m 50,2 km/h (7 Bft) 95,74 %
02.03.2017 05:44 6,6 C 6,7 C 4,4 C 72 % 0 lf 1000,8 hPa 0,0 l/m 0 min 0 min 1 W/m 62,8 km/h (8 Bft) 97,83 %
02.03.2017 05:46 6,6 C 6,7 C 4,4 C 72 % 0 lf 1001,0 hPa 0,0 l/m 0 min 0 min 0 W/m 52,3 km/h (7 Bft) 93,62 %
02.03.2017 05:48 6,5 C 6,1 C 4,4 C 72 % 0 lf 1000,7 hPa 0,0 l/m 0 min 0 min 0 W/m 56,5 km/h (7 Bft) 95,74 %
02.03.2017 05:50 6,4 C 6,7 C 4,4 C 71 % 0 lf 1001,0 hPa 0,0 l/m 0 min 0 min 0 W/m 58,6 km/h (7 Bft) 97,87 %
02.03.2017 05:52 6,4 C 6,7 C 4,4 C 71 % 0 lf 1001,0 hPa 0,0 l/m 0 min 0 min 0 W/m 48,1 km/h (6 Bft) 91,49 %
02.03.2017 05:54 6,4 C 6,7 C 4,4 C 71 % 0 lf 1001,0 hPa 0,0 l/m 0 min 0 min 0 W/m 46,0 km/h (6 Bft) 97,83 %
02.03.2017 05:56 6,4 C 6,7 C 4,4 C 72 % 0 lf 1001,1 hPa 0,0 l/m 0 min 0 min 0 W/m 41,8 km/h (6 Bft) 97,87 %
02.03.2017 05:58 6,4 C 6,7 C 4,4 C 72 % 0 lf 1001,1 hPa 0,0 l/m 0 min 0 min 0 W/m 50,2 km/h (7 Bft) 97,87 %
02.03.2017 06:00 6,3 C 6,7 C 4,4 C 72 % 0 lf 1001,2 hPa 0,0 l/m 0 min 0 min 0 W/m 41,8 km/h (6 Bft) 97,87 %
02.03.2017 06:02 6,3 C 6,7 C 4,4 C 72 % 0 lf 1001,2 hPa 0,0 l/m 0 min 0 min 0 W/m 39,7 km/h (6 Bft) 100,00 %
02.03.2017 06:04 6,3 C 6,7 C 4,4 C 72 % 0 lf 1001,2 hPa 0,0 l/m 0 min 0 min 0 W/m 33,5 km/h (5 Bft) 97,14 %
02.03.2017 06:06 6,3 C 6,7 C 4,4 C 72 % 0 lf 1001,2 hPa 0,0 l/m 0 min 0 min 0 W/m 62,8 km/h (8 Bft) 100,00 %
02.03.2017 06:08 6,3 C 6,7 C 4,4 C 72 % 0 lf 1001,2 hPa 0,0 l/m 0 min 0 min 0 W/m 46,0 km/h (6 Bft) 100,00 %
02.03.2017 06:10 6,3 C 6,7 C 4,4 C 72 % 0 lf 1001,2 hPa 0,0 l/m 0 min 0 min 0 W/m 43,9 km/h (6 Bft) 100,00 %
02.03.2017 06:12 6,3 C 6,7 C 4,4 C 72 % 0 lf 1001,3 hPa 0,0 l/m 0 min 0 min 0 W/m 50,2 km/h (7 Bft) 100,00 %
02.03.2017 06:14 6,3 C 6,7 C 4,4 C 71 % 0 lf 1001,3 hPa 0,0 l/m 0 min 0 min 0 W/m 54,4 km/h (7 Bft) 100,00 %
02.03.2017 06:16 6,3 C 6,7 C 4,4 C 71 % 0 lf 1001,3 hPa 0,0 l/m 0 min 0 min 0 W/m 58,6 km/h (7 Bft) 97,87 %
02.03.2017 06:18 6,3 C 6,7 C 4,4 C 71 % 0 lf 1001,4 hPa 0,0 l/m 0 min 0 min 0 W/m 46,0 km/h (6 Bft) 97,87 %
02.03.2017 06:20 6,3 C 6,7 C 4,4 C 72 % 0 lf 1001,4 hPa 0,0 l/m 0 min 0 min 0 W/m 43,9 km/h (6 Bft) 100,00 %
02.03.2017 06:22 6,3 C 6,7 C 4,4 C 72 % 0 lf 1001,3 hPa 0,0 l/m 0 min 0 min 0 W/m 41,8 km/h (6 Bft) 100,00 %
02.03.2017 06:24 6,3 C 6,7 C 4,4 C 72 % 0 lf 1001,3 hPa 0,0 l/m 0 min 0 min 0 W/m 46,0 km/h (6 Bft) 97,87 %
02.03.2017 06:26 6,3 C 6,7 C 4,4 C 72 % 0 lf 1001,3 hPa 0,0 l/m 0 min 0 min 0 W/m 31,4 km/h (5 Bft) 97,87 %
02.03.2017 06:28 6,3 C 6,7 C 4,4 C 72 % 0 lf 1001,4 hPa 0,0 l/m 0 min 0 min 0 W/m 56,5 km/h (7 Bft) 97,87 %
02.03.2017 06:30 6,3 C 6,7 C 4,4 C 72 % 0 lf 1001,6 hPa 0,0 l/m 0 min 0 min 0 W/m 50,2 km/h (7 Bft) 97,87 %
02.03.2017 06:32 6,3 C 6,7 C 4,4 C 72 % 0 lf 1001,5 hPa 0,0 l/m 0 min 0 min 0 W/m 31,4 km/h (5 Bft) 100,00 %
02.03.2017 06:34 6,3 C 6,7 C 4,4 C 72 % 0 lf 1001,5 hPa 0,0 l/m 0 min 0 min 0 W/m 37,7 km/h (5 Bft) 97,83 %
02.03.2017 06:36 6,3 C 6,7 C 4,4 C 72 % 0 lf 1001,7 hPa 0,0 l/m 0 min 0 min 0 W/m 35,6 km/h (5 Bft) 100,00 %
02.03.2017 06:38 6,3 C 6,7 C 4,4 C 73 % 0 lf 1001,6 hPa 0,0 l/m 0 min 0 min 0 W/m 33,5 km/h (5 Bft) 100,00 %
02.03.2017 06:40 6,3 C 6,7 C 4,4 C 73 % 0 lf 1001,7 hPa 0,0 l/m 0 min 0 min 0 W/m 41,8 km/h (6 Bft) 100,00 %
02.03.2017 06:42 6,3 C 6,7 C 4,4 C 73 % 0 lf 1001,6 hPa 0,0 l/m 0 min 0 min 0 W/m 31,4 km/h (5 Bft) 97,87 %
02.03.2017 06:44 6,3 C 6,7 C 4,4 C 73 % 0 lf 1001,6 hPa 0,0 l/m 0 min 0 min 0 W/m 37,7 km/h (5 Bft) 95,65 %
02.03.2017 06:46 6,3 C 6,7 C 4,4 C 73 % 0 lf 1001,6 hPa 0,0 l/m 0 min 0 min 0 W/m 43,9 km/h (6 Bft) 97,87 %
02.03.2017 06:48 6,3 C 6,7 C 4,4 C 73 % 0 lf 1001,6 hPa 0,0 l/m 0 min 0 min 0 W/m 41,8 km/h (6 Bft) 97,87 %
02.03.2017 06:50 6,3 C 6,7 C 4,4 C 73 % 0 lf 1001,7 hPa 0,0 l/m 0 min 0 min 0 W/m 52,3 km/h (7 Bft) 97,87 %
02.03.2017 06:52 6,3 C 6,7 C 4,4 C 72 % 0 lf 1001,7 hPa 0,0 l/m 0 min 0 min 0 W/m 39,7 km/h (6 Bft) 95,74 %
02.03.2017 06:54 6,3 C 6,1 C 4,4 C 73 % 0 lf 1001,7 hPa 0,0 l/m 0 min 0 min 0 W/m 33,5 km/h (5 Bft) 93,62 %
02.03.2017 06:56 6,3 C 6,1 C 4,4 C 73 % 0 lf 1001,7 hPa 0,0 l/m 0 min 0 min 0 W/m 46,0 km/h (6 Bft) 91,30 %
02.03.2017 06:58 6,2 C 6,7 C 4,4 C 73 % 0 lf 1001,9 hPa 0,0 l/m 0 min 0 min 0 W/m 43,9 km/h (6 Bft) 95,74 %
02.03.2017 07:00 6,2 C 6,7 C 4,4 C 73 % 0 lf 1001,9 hPa 0,0 l/m 0 min 0 min 0 W/m 39,7 km/h (6 Bft) 97,87 %
02.03.2017 07:02 6,2 C 6,7 C 4,4 C 73 % 0 lf 1001,9 hPa 0,0 l/m 0 min 0 min 0 W/m 33,5 km/h (5 Bft) 95,74 %
02.03.2017 07:04 6,2 C 6,7 C 4,4 C 73 % 0 lf 1002,0 hPa 0,0 l/m 0 min 0 min 0 W/m 29,3 km/h (5 Bft) 93,62 %
02.03.2017 07:06 6,2 C 6,7 C 4,4 C 73 % 0 lf 1001,9 hPa 0,0 l/m 0 min 0 min 0 W/m 39,7 km/h (6 Bft) 93,62 %
02.03.2017 07:08 6,2 C 6,1 C 4,4 C 74 % 0 lf 1001,9 hPa 0,0 l/m 0 min 0 min 0 W/m 33,5 km/h (5 Bft) 93,48 %
02.03.2017 07:10 6,2 C 6,1 C 4,4 C 74 % 0 lf 1002,0 hPa 0,0 l/m 0 min 0 min 0 W/m 25,1 km/h (4 Bft) 91,49 %
02.03.2017 07:12 6,2 C 6,1 C 4,4 C 74 % 0 lf 1002,0 hPa 0,0 l/m 0 min 0 min 0 W/m 48,1 km/h (6 Bft) 95,74 %
02.03.2017 07:14 6,2 C 6,7 C 4,4 C 74 % 0 lf 1002,0 hPa 0,0 l/m 0 min 0 min 0 W/m 43,9 km/h (6 Bft) 93,62 %
02.03.2017 07:16 6,2 C 6,7 C 4,4 C 74 % 0 lf 1002,0 hPa 0,0 l/m 0 min 0 min 0 W/m 37,7 km/h (5 Bft) 93,62 %
02.03.2017 07:18 6,2 C 6,1 C 4,4 C 74 % 0 lf 1002,0 hPa 0,0 l/m 0 min 0 min 1 W/m 37,7 km/h (5 Bft) 95,74 %
02.03.2017 07:20 6,2 C 6,1 C 4,4 C 75 % 0 lf 1002,0 hPa 0,0 l/m 0 min 0 min 0 W/m 37,7 km/h (5 Bft) 93,48 %
02.03.2017 07:22 6,2 C 6,1 C 4,4 C 75 % 0 lf 1002,0 hPa 0,0 l/m 0 min 0 min 2 W/m 31,4 km/h (5 Bft) 95,74 %
02.03.2017 07:24 6,2 C 6,1 C 4,4 C 75 % 0 lf 1002,0 hPa 0,0 l/m 0 min 0 min 3 W/m 37,7 km/h (5 Bft) 95,74 %
02.03.2017 07:26 6,2 C 6,1 C 4,4 C 75 % 0 lf 1002,0 hPa 0,0 l/m 0 min 0 min 3 W/m 41,8 km/h (6 Bft) 93,62 %
02.03.2017 07:28 6,2 C 6,1 C 4,4 C 75 % 0 lf 1002,1 hPa 0,0 l/m 0 min 0 min 5 W/m 39,7 km/h (6 Bft) 95,74 %
02.03.2017 07:30 6,2 C 6,1 C 4,4 C 75 % 0 lf 1002,2 hPa 0,0 l/m 0 min 0 min 6 W/m 37,7 km/h (5 Bft) 95,74 %
02.03.2017 07:32 6,2 C 6,1 C 4,4 C 75 % 0 lf 1002,2 hPa 0,0 l/m 0 min 0 min 5 W/m 41,8 km/h (6 Bft) 97,83 %
02.03.2017 07:34 6,2 C 6,1 C 4,4 C 75 % 0 lf 1002,3 hPa 0,0 l/m 0 min 0 min 7 W/m 33,5 km/h (5 Bft) 95,74 %
02.03.2017 07:36 6,2 C 6,1 C 4,4 C 75 % 0 lf 1002,3 hPa 0,0 l/m 0 min 0 min 14 W/m 39,7 km/h (6 Bft) 95,74 %
02.03.2017 07:38 6,2 C 6,7 C 4,4 C 74 % 0 lf 1002,1 hPa 0,0 l/m 0 min 0 min 16 W/m 39,7 km/h (6 Bft) 93,62 %
02.03.2017 07:40 6,2 C 6,7 C 5,0 C 74 % 0 lf 1002,3 hPa 0,0 l/m 0 min 0 min 17 W/m 41,8 km/h (6 Bft) 93,62 %
02.03.2017 07:42 6,2 C 6,7 C 5,0 C 74 % 1 lf 1002,2 hPa 0,0 l/m 0 min 0 min 17 W/m 46,0 km/h (6 Bft) 95,74 %
02.03.2017 07:44 6,2 C 6,7 C 5,0 C 74 % 0 lf 1002,3 hPa 0,0 l/m 0 min 0 min 17 W/m 60,7 km/h (7 Bft) 93,48 %
02.03.2017 07:46 6,3 C 6,7 C 5,0 C 73 % 0 lf 1002,4 hPa 0,0 l/m 0 min 0 min 13 W/m 56,5 km/h (7 Bft) 97,87 %
02.03.2017 07:48 6,4 C 6,7 C 5,0 C 73 % 0 lf 1002,5 hPa 0,0 l/m 0 min 0 min 11 W/m 54,4 km/h (7 Bft) 95,74 %
02.03.2017 07:50 6,4 C 6,7 C 5,0 C 73 % 0 lf 1002,4 hPa 0,0 l/m 0 min 0 min 10 W/m 48,1 km/h (6 Bft) 91,49 %
02.03.2017 07:52 6,4 C 6,7 C 5,0 C 73 % 0 lf 1002,5 hPa 0,0 l/m 0 min 0 min 10 W/m 62,8 km/h (8 Bft) 93,62 %
02.03.2017 07:54 6,4 C 6,7 C 5,0 C 73 % 0 lf 1002,5 hPa 0,0 l/m 0 min 0 min 11 W/m 56,5 km/h (7 Bft) 91,30 %
02.03.2017 07:56 6,4 C 6,7 C 5,0 C 72 % 0 lf 1002,5 hPa 0,0 l/m 0 min 0 min 10 W/m 54,4 km/h (7 Bft) 93,62 %
02.03.2017 07:58 6,5 C 6,7 C 5,0 C 72 % 0 lf 1002,5 hPa 0,0 l/m 0 min 0 min 10 W/m 41,8 km/h (6 Bft) 93,62 %
02.03.2017 08:00 6,5 C 6,7 C 5,0 C 72 % 0 lf 1002,6 hPa 0,0 l/m 0 min 0 min 11 W/m 39,7 km/h (6 Bft) 95,74 %
02.03.2017 08:02 6,5 C 6,7 C 5,0 C 73 % 0 lf 1002,7 hPa 0,0 l/m 0 min 2 min 12 W/m 52,3 km/h (7 Bft) 89,36 %
02.03.2017 08:04 6,5 C 6,7 C 5,0 C 72 % 2 lf 1002,8 hPa 0,0 l/m 0 min 0 min 16 W/m 50,2 km/h (7 Bft) 95,74 %
02.03.2017 08:06 6,5 C 6,7 C 5,0 C 72 % 0 lf 1002,8 hPa 0,0 l/m 0 min 0 min 18 W/m 48,1 km/h (6 Bft) 93,48 %
02.03.2017 08:08 6,5 C 6,7 C 5,0 C 72 % 0 lf 1002,7 hPa 0,0 l/m 0 min 0 min 19 W/m 39,7 km/h (6 Bft) 95,74 %
02.03.2017 08:10 6,5 C 6,7 C 5,0 C 72 % 1 lf 1002,8 hPa 0,0 l/m 0 min 0 min 22 W/m 41,8 km/h (6 Bft) 95,74 %
02.03.2017 08:12 6,5 C 6,7 C 5,0 C 72 % 0 lf 1002,8 hPa 0,0 l/m 0 min 0 min 23 W/m 41,8 km/h (6 Bft) 91,49 %
02.03.2017 08:14 6,5 C 6,7 C 5,0 C 72 % 0 lf 1002,9 hPa 0,0 l/m 0 min 0 min 24 W/m 54,4 km/h (7 Bft) 93,62 %
02.03.2017 08:16 6,5 C 6,7 C 5,0 C 72 % 0 lf 1002,9 hPa 0,0 l/m 0 min 0 min 26 W/m 64,9 km/h (8 Bft) 93,62 %
02.03.2017 08:18 6,6 C 6,7 C 5,0 C 71 % 0 lf 1002,9 hPa 0,0 l/m 0 min 0 min 28 W/m 52,3 km/h (7 Bft) 93,48 %
02.03.2017 08:20 6,6 C 6,7 C 5,0 C 72 % 0 lf 1003,1 hPa 0,0 l/m 0 min 0 min 27 W/m 46,0 km/h (6 Bft) 95,74 %
02.03.2017 08:22 6,6 C 6,7 C 5,0 C 72 % 0 lf 1002,8 hPa 0,0 l/m 0 min 0 min 31 W/m 37,7 km/h (5 Bft) 91,49 %
02.03.2017 08:24 6,6 C 6,7 C 5,0 C 72 % 0 lf 1003,1 hPa 0,0 l/m 0 min 0 min 32 W/m 58,6 km/h (7 Bft) 93,62 %
02.03.2017 08:26 6,6 C 6,7 C 5,0 C 72 % 0 lf 1003,1 hPa 0,0 l/m 0 min 0 min 33 W/m 48,1 km/h (6 Bft) 91,49 %
02.03.2017 08:28 6,6 C 7,2 C 5,0 C 72 % 0 lf 1003,0 hPa 0,0 l/m 0 min 0 min 30 W/m 58,6 km/h (7 Bft) 95,74 %
02.03.2017 08:30 6,6 C 7,2 C 5,0 C 71 % 0 lf 1003,3 hPa 0,0 l/m 0 min 0 min 28 W/m 54,4 km/h (7 Bft) 93,48 %
02.03.2017 08:32 6,6 C 7,2 C 5,0 C 71 % 0 lf 1003,3 hPa 0,0 l/m 0 min 0 min 35 W/m 48,1 km/h (6 Bft) 97,87 %
02.03.2017 08:34 6,6 C 7,2 C 5,0 C 71 % 0 lf 1003,3 hPa 0,0 l/m 0 min 0 min 39 W/m 60,7 km/h (7 Bft) 96,23 %
02.03.2017 08:36 6,6 C 7,2 C 5,6 C 70 % 0 lf 1003,3 hPa 0,0 l/m 0 min 0 min 43 W/m 71,1 km/h (8 Bft) 95,74 %
02.03.2017 08:38 6,6 C 7,2 C 5,6 C 70 % 0 lf 1003,4 hPa 0,0 l/m 0 min 0 min 47 W/m 41,8 km/h (6 Bft) 97,87 %
02.03.2017 08:40 6,6 C 7,2 C 5,6 C 70 % 0 lf 1003,2 hPa 0,0 l/m 0 min 0 min 48 W/m 50,2 km/h (7 Bft) 95,74 %
02.03.2017 08:42 6,7 C 7,2 C 5,6 C 70 % 0 lf 1003,3 hPa 0,0 l/m 0 min 0 min 55 W/m 54,4 km/h (7 Bft) 97,87 %
02.03.2017 08:44 6,7 C 7,2 C 5,6 C 70 % 0 lf 1003,4 hPa 0,0 l/m 0 min 0 min 64 W/m 58,6 km/h (7 Bft) 97,87 %
02.03.2017 08:46 6,7 C 7,2 C 5,6 C 70 % 0 lf 1003,4 hPa 0,0 l/m 0 min 0 min 71 W/m 56,5 km/h (7 Bft) 95,65 %
02.03.2017 08:48 6,7 C 7,2 C 5,6 C 69 % 0 lf 1003,3 hPa 0,0 l/m 0 min 0 min 72 W/m 41,8 km/h (6 Bft) 97,87 %
02.03.2017 08:50 6,8 C 7,2 C 5,6 C 69 % 0 lf 1003,4 hPa 0,0 l/m 0 min 0 min 85 W/m 54,4 km/h (7 Bft) 97,87 %
02.03.2017 08:52 6,8 C 7,8 C 5,6 C 69 % 0 lf 1003,6 hPa 0,0 l/m 0 min 0 min 107 W/m 43,9 km/h (6 Bft) 93,62 %
02.03.2017 08:54 6,8 C 7,8 C 6,1 C 69 % 0 lf 1003,6 hPa 0,0 l/m 2 min 0 min 127 W/m 48,1 km/h (6 Bft) 97,87 %
02.03.2017 08:56 6,9 C 8,3 C 6,1 C 69 % 0 lf 1003,6 hPa 0,0 l/m 2 min 0 min 158 W/m 56,5 km/h (7 Bft) 97,83 %
02.03.2017 08:58 6,9 C 7,8 C 6,1 C 68 % 0 lf 1003,5 hPa 0,0 l/m 0 min 0 min 98 W/m 52,3 km/h (7 Bft) 97,87 %
02.03.2017 09:00 6,9 C 8,3 C 6,1 C 68 % 0 lf 1003,8 hPa 0,0 l/m 0 min 0 min 119 W/m 43,9 km/h (6 Bft) 95,74 %
02.03.2017 09:02 6,9 C 9,4 C 6,1 C 68 % 0 lf 1003,6 hPa 0,0 l/m 2 min 0 min 245 W/m 48,1 km/h (6 Bft) 97,87 %
02.03.2017 09:04 7,0 C 9,4 C 6,1 C 68 % 0 lf 1003,8 hPa 0,0 l/m 2 min 0 min 272 W/m 56,5 km/h (7 Bft) 97,87 %
02.03.2017 09:06 7,1 C 10,0 C 6,7 C 69 % 0 lf 1003,9 hPa 0,0 l/m 2 min 0 min 196 W/m 52,3 km/h (7 Bft) 97,87 %
02.03.2017 09:08 7,1 C 9,4 C 6,7 C 69 % 0 lf 1003,9 hPa 0,0 l/m 2 min 0 min 188 W/m 52,3 km/h (7 Bft) 95,65 %
02.03.2017 09:10 7,1 C 10,0 C 7,2 C 70 % 0 lf 1004,0 hPa 0,0 l/m 2 min 0 min 177 W/m 54,4 km/h (7 Bft) 97,87 %
02.03.2017 09:12 7,1 C 11,1 C 7,8 C 70 % 0 lf 1003,9 hPa 0,0 l/m 2 min 0 min 330 W/m 41,8 km/h (6 Bft) 97,87 %
02.03.2017 09:14 7,2 C 10,6 C 7,8 C 71 % 0 lf 1004,0 hPa 0,0 l/m 2 min 0 min 235 W/m 39,7 km/h (6 Bft) 95,74 %
02.03.2017 09:16 7,2 C 8,9 C 6,7 C 71 % 0 lf 1004,1 hPa 0,0 l/m 0 min 0 min 140 W/m 50,2 km/h (7 Bft) 97,87 %
02.03.2017 09:18 7,2 C 8,3 C 6,7 C 70 % 0 lf 1004,1 hPa 0,0 l/m 0 min 0 min 117 W/m 54,4 km/h (7 Bft) 97,87 %
02.03.2017 09:20 7,2 C 7,8 C 6,7 C 70 % 0 lf 1004,2 hPa 0,0 l/m 0 min 0 min 129 W/m 48,1 km/h (6 Bft) 97,83 %
02.03.2017 09:22 7,2 C 7,8 C 6,1 C 71 % 0 lf 1004,2 hPa 0,0 l/m 0 min 0 min 126 W/m 39,7 km/h (6 Bft) 97,87 %
02.03.2017 09:24 7,1 C 7,8 C 6,1 C 70 % 0 lf 1004,2 hPa 0,0 l/m 0 min 0 min 130 W/m 62,8 km/h (8 Bft) 100,00 %
02.03.2017 09:26 7,1 C 7,8 C 6,1 C 70 % 0 lf 1004,2 hPa 0,0 l/m 0 min 0 min 123 W/m 62,8 km/h (8 Bft) 100,00 %
02.03.2017 09:28 7,1 C 8,3 C 6,1 C 71 % 0 lf 1004,4 hPa 0,0 l/m 0 min 0 min 134 W/m 46,0 km/h (6 Bft) 97,87 %
02.03.2017 09:30 7,1 C 8,3 C 6,1 C 71 % 0 lf 1004,4 hPa 0,0 l/m 2 min 0 min 171 W/m 56,5 km/h (7 Bft) 100,00 %
02.03.2017 09:32 7,1 C 8,3 C 6,7 C 70 % 0 lf 1004,3 hPa 0,0 l/m 2 min 0 min 206 W/m 52,3 km/h (7 Bft) 97,83 %
02.03.2017 09:34 7,1 C 9,4 C 7,2 C 71 % 0 lf 1004,4 hPa 0,0 l/m 2 min 0 min 266 W/m 48,1 km/h (6 Bft) 100,00 %
02.03.2017 09:36 7,2 C 8,9 C 7,2 C 71 % 0 lf 1004,6 hPa 0,0 l/m 2 min 0 min 199 W/m 39,7 km/h (6 Bft) 97,87 %
02.03.2017 09:38 7,2 C 8,9 C 6,7 C 71 % 0 lf 1004,5 hPa 0,0 l/m 0 min 0 min 154 W/m 46,0 km/h (6 Bft) 97,87 %
02.03.2017 09:40 7,3 C 8,3 C 6,7 C 70 % 0 lf 1004,5 hPa 0,0 l/m 0 min 0 min 134 W/m 54,4 km/h (7 Bft) 100,00 %
02.03.2017 09:42 7,3 C 8,3 C 6,7 C 71 % 0 lf 1004,6 hPa 0,0 l/m 0 min 0 min 113 W/m 48,1 km/h (6 Bft) 97,87 %
02.03.2017 09:44 7,3 C 8,3 C 6,7 C 70 % 0 lf 1004,6 hPa 0,0 l/m 0 min 0 min 116 W/m 58,6 km/h (7 Bft) 100,00 %
02.03.2017 09:46 7,3 C 8,3 C 6,7 C 69 % 0 lf 1004,7 hPa 0,0 l/m 0 min 0 min 119 W/m 54,4 km/h (7 Bft) 97,87 %
02.03.2017 09:48 7,3 C 8,3 C 6,7 C 70 % 0 lf 1004,7 hPa 0,0 l/m 0 min 0 min 125 W/m 62,8 km/h (8 Bft) 97,87 %
02.03.2017 09:50 7,3 C 8,3 C 6,7 C 69 % 0 lf 1004,8 hPa 0,0 l/m 0 min 0 min 121 W/m 48,1 km/h (6 Bft) 97,87 %
02.03.2017 09:52 7,3 C 7,8 C 6,7 C 69 % 0 lf 1004,8 hPa 0,0 l/m 0 min 0 min 115 W/m 58,6 km/h (7 Bft) 100,00 %
02.03.2017 09:54 7,3 C 8,3 C 6,7 C 69 % 0 lf 1004,8 hPa 0,0 l/m 0 min 0 min 138 W/m 46,0 km/h (6 Bft) 100,00 %
02.03.2017 09:56 7,3 C 8,3 C 6,7 C 70 % 0 lf 1004,9 hPa 0,0 l/m 0 min 0 min 158 W/m 37,7 km/h (5 Bft) 100,00 %
02.03.2017 09:58 7,3 C 8,3 C 6,7 C 70 % 0 lf 1005,0 hPa 0,0 l/m 2 min 0 min 197 W/m 52,3 km/h (7 Bft) 100,00 %
02.03.2017 10:00 7,3 C 8,9 C 7,2 C 70 % 0 lf 1005,0 hPa 0,0 l/m 2 min 0 min 195 W/m 48,1 km/h (6 Bft) 97,87 %
02.03.2017 10:02 7,3 C 8,9 C 6,7 C 69 % 0 lf 1005,0 hPa 0,0 l/m 0 min 0 min 160 W/m 64,9 km/h (8 Bft) 97,87 %
02.03.2017 10:04 7,3 C 8,9 C 7,2 C 70 % 0 lf 1005,1 hPa 0,0 l/m 2 min 0 min 193 W/m 43,9 km/h (6 Bft) 97,87 %
02.03.2017 10:06 7,4 C 8,9 C 7,2 C 70 % 0 lf 1005,1 hPa 0,0 l/m 0 min 0 min 174 W/m 46,0 km/h (6 Bft) 95,65 %
02.03.2017 10:08 7,4 C 8,9 C 7,2 C 70 % 0 lf 1005,1 hPa 0,0 l/m 0 min 0 min 189 W/m 43,9 km/h (6 Bft) 95,74 %
02.03.2017 10:10 7,4 C 9,4 C 7,2 C 69 % 0 lf 1005,3 hPa 0,0 l/m 2 min 0 min 241 W/m 48,1 km/h (6 Bft) 100,00 %
02.03.2017 10:12 7,4 C 10,0 C 7,2 C 70 % 0 lf 1005,1 hPa 0,0 l/m 2 min 0 min 247 W/m 56,5 km/h (7 Bft) 100,00 %
02.03.2017 10:14 7,5 C 9,4 C 7,2 C 70 % 0 lf 1005,4 hPa 0,0 l/m 2 min 0 min 227 W/m 43,9 km/h (6 Bft) 100,00 %
02.03.2017 10:16 7,5 C 9,4 C 7,2 C 70 % 0 lf 1005,4 hPa 0,0 l/m 2 min 0 min 219 W/m 48,1 km/h (6 Bft) 100,00 %
02.03.2017 10:18 7,6 C 8,9 C 7,2 C 70 % 0 lf 1005,3 hPa 0,0 l/m 2 min 0 min 201 W/m 54,4 km/h (7 Bft) 95,65 %
02.03.2017 10:20 7,6 C 8,9 C 7,2 C 69 % 0 lf 1005,6 hPa 0,0 l/m 0 min 0 min 162 W/m 48,1 km/h (6 Bft) 97,87 %
02.03.2017 10:22 7,6 C 8,3 C 6,7 C 69 % 0 lf 1005,6 hPa 0,0 l/m 0 min 0 min 140 W/m 56,5 km/h (7 Bft) 97,87 %
02.03.2017 10:24 7,5 C 8,3 C 6,7 C 69 % 0 lf 1005,6 hPa 0,0 l/m 0 min 0 min 176 W/m 52,3 km/h (7 Bft) 97,87 %
02.03.2017 10:26 7,5 C 8,3 C 6,7 C 69 % 0 lf 1005,5 hPa 0,0 l/m 0 min 0 min 159 W/m 50,2 km/h (7 Bft) 97,87 %
02.03.2017 10:28 7,5 C 8,3 C 6,7 C 69 % 0 lf 1005,7 hPa 0,0 l/m 0 min 0 min 155 W/m 60,7 km/h (7 Bft) 97,87 %
02.03.2017 10:30 7,4 C 8,3 C 7,2 C 69 % 0 lf 1005,7 hPa 0,0 l/m 0 min 0 min 168 W/m 43,9 km/h (6 Bft) 91,30 %
02.03.2017 10:32 7,4 C 8,3 C 7,2 C 69 % 0 lf 1005,8 hPa 0,0 l/m 0 min 0 min 156 W/m 46,0 km/h (6 Bft) 95,83 %
02.03.2017 10:34 7,4 C 8,3 C 6,7 C 69 % 0 lf 1005,9 hPa 0,0 l/m 0 min 0 min 133 W/m 41,8 km/h (6 Bft) 97,87 %
02.03.2017 10:36 7,4 C 8,3 C 6,7 C 69 % 0 lf 1006,1 hPa 0,0 l/m 0 min 0 min 110 W/m 54,4 km/h (7 Bft) 97,87 %
02.03.2017 10:38 7,4 C 7,8 C 6,7 C 69 % 0 lf 1005,9 hPa 0,0 l/m 0 min 0 min 97 W/m 50,2 km/h (7 Bft) 95,74 %
02.03.2017 10:40 7,4 C 7,8 C 6,7 C 70 % 0 lf 1006,0 hPa 0,0 l/m 0 min 0 min 85 W/m 43,9 km/h (6 Bft) 89,36 %
02.03.2017 10:42 7,4 C 7,8 C 6,7 C 69 % 0 lf 1006,0 hPa 0,0 l/m 0 min 0 min 72 W/m 56,5 km/h (7 Bft) 91,30 %
02.03.2017 10:44 7,4 C 7,8 C 6,7 C 69 % 0 lf 1006,3 hPa 0,0 l/m 0 min 0 min 71 W/m 46,0 km/h (6 Bft) 93,62 %
02.03.2017 10:46 7,3 C 7,8 C 6,1 C 69 % 0 lf 1006,2 hPa 0,0 l/m 0 min 0 min 77 W/m 54,4 km/h (7 Bft) 91,49 %
02.03.2017 10:48 7,3 C 7,8 C 6,1 C 70 % 0 lf 1006,3 hPa 0,0 l/m 0 min 0 min 77 W/m 33,5 km/h (5 Bft) 89,36 %
02.03.2017 10:50 7,3 C 7,8 C 6,1 C 70 % 0 lf 1006,2 hPa 0,0 l/m 0 min 0 min 71 W/m 39,7 km/h (6 Bft) 91,49 %
02.03.2017 10:52 7,3 C 7,8 C 6,1 C 69 % 0 lf 1006,3 hPa 0,0 l/m 0 min 0 min 87 W/m 39,7 km/h (6 Bft) 91,49 %
02.03.2017 10:54 7,3 C 7,8 C 6,7 C 70 % 0 lf 1006,3 hPa 0,0 l/m 0 min 0 min 103 W/m 41,8 km/h (6 Bft) 93,48 %
02.03.2017 10:56 7,3 C 7,8 C 6,7 C 70 % 0 lf 1006,4 hPa 0,0 l/m 0 min 0 min 95 W/m 35,6 km/h (5 Bft) 89,36 %
02.03.2017 10:58 7,3 C 7,8 C 6,7 C 70 % 0 lf 1006,4 hPa 0,0 l/m 0 min 0 min 93 W/m 43,9 km/h (6 Bft) 89,36 %
02.03.2017 11:00 7,3 C 7,8 C 6,7 C 70 % 0 lf 1006,5 hPa 0,0 l/m 0 min 0 min 83 W/m 25,1 km/h (4 Bft) 89,36 %
02.03.2017 11:02 7,3 C 7,8 C 6,7 C 71 % 0 lf 1006,6 hPa 0,0 l/m 0 min 0 min 74 W/m 23,0 km/h (4 Bft) 91,49 %
02.03.2017 11:04 7,3 C 7,8 C 6,7 C 71 % 0 lf 1006,6 hPa 0,0 l/m 0 min 0 min 83 W/m 27,2 km/h (4 Bft) 89,13 %
02.03.2017 11:06 7,3 C 7,8 C 6,7 C 71 % 0 lf 1006,6 hPa 0,0 l/m 0 min 0 min 83 W/m 39,7 km/h (6 Bft) 89,36 %
02.03.2017 11:08 7,3 C 7,8 C 6,7 C 71 % 0 lf 1006,6 hPa 0,0 l/m 0 min 0 min 80 W/m 41,8 km/h (6 Bft) 91,49 %
02.03.2017 11:10 7,2 C 7,8 C 6,7 C 71 % 0 lf 1006,8 hPa 0,0 l/m 0 min 0 min 75 W/m 31,4 km/h (5 Bft) 89,36 %
02.03.2017 11:12 7,2 C 7,8 C 6,1 C 71 % 0 lf 1006,8 hPa 0,0 l/m 0 min 0 min 75 W/m 39,7 km/h (6 Bft) 91,49 %
02.03.2017 11:14 7,2 C 7,8 C 6,7 C 70 % 0 lf 1006,9 hPa 0,0 l/m 0 min 0 min 79 W/m 54,4 km/h (7 Bft) 89,36 %
02.03.2017 11:16 7,2 C 7,8 C 6,7 C 70 % 0 lf 1006,9 hPa 0,0 l/m 0 min 0 min 77 W/m 43,9 km/h (6 Bft) 91,30 %
02.03.2017 11:18 7,2 C 7,8 C 6,7 C 71 % 0 lf 1006,9 hPa 0,0 l/m 0 min 0 min 86 W/m 41,8 km/h (6 Bft) 91,49 %
02.03.2017 11:20 7,2 C 7,8 C 6,7 C 71 % 0 lf 1006,9 hPa 0,0 l/m 0 min 0 min 88 W/m 48,1 km/h (6 Bft) 93,62 %
02.03.2017 11:22 7,2 C 7,8 C 6,7 C 71 % 0 lf 1007,0 hPa 0,0 l/m 0 min 0 min 86 W/m 37,7 km/h (5 Bft) 95,74 %
02.03.2017 11:24 7,2 C 7,8 C 6,7 C 71 % 0 lf 1007,0 hPa 0,0 l/m 0 min 0 min 90 W/m 33,5 km/h (5 Bft) 95,74 %
02.03.2017 11:26 7,3 C 7,8 C 6,7 C 71 % 0 lf 1007,1 hPa 0,0 l/m 0 min 0 min 82 W/m 52,3 km/h (7 Bft) 93,62 %
02.03.2017 11:28 7,2 C 7,8 C 6,7 C 71 % 0 lf 1007,1 hPa 0,0 l/m 0 min 0 min 76 W/m 35,6 km/h (5 Bft) 91,30 %
02.03.2017 11:30 7,2 C 7,8 C 6,7 C 71 % 0 lf 1007,1 hPa 0,0 l/m 0 min 0 min 79 W/m 46,0 km/h (6 Bft) 95,74 %
02.03.2017 11:32 7,2 C 7,8 C 6,7 C 71 % 0 lf 1007,3 hPa 0,0 l/m 0 min 0 min 78 W/m 35,6 km/h (5 Bft) 97,87 %
02.03.2017 11:34 7,2 C 7,8 C 6,1 C 71 % 0 lf 1007,3 hPa 0,0 l/m 0 min 0 min 69 W/m 46,0 km/h (6 Bft) 97,87 %
02.03.2017 11:36 7,2 C 7,8 C 6,1 C 71 % 0 lf 1007,3 hPa 0,0 l/m 0 min 0 min 74 W/m 37,7 km/h (5 Bft) 91,49 %
02.03.2017 11:38 7,2 C 7,8 C 6,1 C 71 % 0 lf 1007,3 hPa 0,0 l/m 0 min 0 min 77 W/m 43,9 km/h (6 Bft) 97,87 %
02.03.2017 11:40 7,2 C 7,8 C 6,7 C 71 % 0 lf 1007,6 hPa 0,0 l/m 0 min 0 min 76 W/m 60,7 km/h (7 Bft) 95,65 %
02.03.2017 11:42 7,3 C 7,8 C 6,7 C 70 % 0 lf 1007,6 hPa 0,0 l/m 0 min 0 min 75 W/m 48,1 km/h (6 Bft) 97,87 %
02.03.2017 11:44 7,3 C 7,8 C 6,1 C 70 % 0 lf 1007,5 hPa 0,0 l/m 0 min 0 min 69 W/m 43,9 km/h (6 Bft) 97,87 %
02.03.2017 11:46 7,3 C 7,8 C 6,1 C 70 % 0 lf 1007,6 hPa 0,0 l/m 0 min 0 min 67 W/m 35,6 km/h (5 Bft) 97,87 %
02.03.2017 11:48 7,3 C 7,8 C 6,7 C 71 % 0 lf 1007,8 hPa 0,0 l/m 0 min 0 min 75 W/m 31,4 km/h (5 Bft) 100,00 %
02.03.2017 11:50 7,3 C 7,8 C 6,1 C 71 % 0 lf 1007,7 hPa 0,0 l/m 0 min 0 min 66 W/m 43,9 km/h (6 Bft) 100,00 %
02.03.2017 11:52 7,3 C 7,8 C 6,1 C 71 % 0 lf 1007,7 hPa 0,0 l/m 0 min 0 min 69 W/m 29,3 km/h (5 Bft) 100,00 %
02.03.2017 11:54 7,3 C 7,8 C 6,7 C 71 % 0 lf 1007,8 hPa 0,0 l/m 0 min 0 min 68 W/m 31,4 km/h (5 Bft) 95,74 %
02.03.2017 11:56 7,3 C 7,8 C 6,7 C 71 % 0 lf 1007,9 hPa 0,0 l/m 0 min 0 min 71 W/m 27,2 km/h (4 Bft) 97,87 %
02.03.2017 11:58 7,3 C 7,8 C 6,7 C 71 % 0 lf 1007,9 hPa 0,0 l/m 0 min 0 min 74 W/m 39,7 km/h (6 Bft) 100,00 %
02.03.2017 12:00 7,3 C 7,8 C 6,7 C 71 % 0 lf 1008,0 hPa 0,0 l/m 0 min 0 min 79 W/m 29,3 km/h (5 Bft) 100,00 %
02.03.2017 12:02 7,3 C 7,8 C 6,7 C 71 % 0 lf 1008,0 hPa 0,0 l/m 0 min 0 min 89 W/m 39,7 km/h (6 Bft) 93,62 %
02.03.2017 12:06 7,3 C 7,8 C 6,7 C 71 % 0 lf 1008,1 hPa 0,0 l/m 0 min 0 min 86 W/m 58,6 km/h (7 Bft) 97,94 %
02.03.2017 12:08 7,4 C 8,3 C 6,7 C 71 % 0 lf 1008,2 hPa 0,0 l/m 0 min 0 min 103 W/m 37,7 km/h (5 Bft) 97,87 %
02.03.2017 12:10 7,4 C 8,3 C 6,7 C 71 % 0 lf 1008,2 hPa 0,0 l/m 0 min 0 min 108 W/m 37,7 km/h (5 Bft) 97,87 %
02.03.2017 12:12 7,4 C 8,3 C 6,7 C 71 % 0 lf 1008,1 hPa 0,0 l/m 0 min 0 min 104 W/m 33,5 km/h (5 Bft) 97,87 %
02.03.2017 12:14 7,4 C 8,3 C 6,7 C 71 % 0 lf 1008,2 hPa 0,0 l/m 0 min 0 min 98 W/m 43,9 km/h (6 Bft) 97,83 %
02.03.2017 12:16 7,4 C 8,3 C 6,7 C 71 % 0 lf 1008,3 hPa 0,0 l/m 0 min 0 min 72 W/m 35,6 km/h (5 Bft) 100,00 %
02.03.2017 12:18 7,4 C 8,3 C 6,7 C 71 % 0 lf 1008,3 hPa 0,0 l/m 0 min 0 min 70 W/m 27,2 km/h (4 Bft) 100,00 %
02.03.2017 12:20 7,4 C 7,8 C 6,7 C 71 % 0 lf 1008,3 hPa 0,0 l/m 0 min 0 min 74 W/m 35,6 km/h (5 Bft) 97,87 %
02.03.2017 12:22 7,5 C 7,8 C 6,7 C 71 % 0 lf 1008,4 hPa 0,0 l/m 0 min 0 min 78 W/m 37,7 km/h (5 Bft) 95,74 %
02.03.2017 12:24 7,4 C 7,8 C 6,7 C 71 % 0 lf 1008,3 hPa 0,0 l/m 0 min 0 min 65 W/m 33,5 km/h (5 Bft) 95,65 %
02.03.2017 12:26 7,4 C 7,8 C 6,7 C 71 % 0 lf 1008,4 hPa 0,0 l/m 0 min 0 min 56 W/m 31,4 km/h (5 Bft) 100,00 %
02.03.2017 12:28 7,4 C 7,8 C 6,7 C 71 % 0 lf 1008,4 hPa 0,0 l/m 0 min 0 min 62 W/m 35,6 km/h (5 Bft) 100,00 %
02.03.2017 12:30 7,5 C 7,8 C 6,7 C 71 % 0 lf 1008,4 hPa 0,0 l/m 0 min 0 min 66 W/m 35,6 km/h (5 Bft) 100,00 %
02.03.2017 12:32 7,4 C 7,8 C 6,7 C 71 % 0 lf 1008,4 hPa 0,0 l/m 0 min 0 min 66 W/m 29,3 km/h (5 Bft) 97,87 %
02.03.2017 12:34 7,4 C 7,8 C 6,7 C 71 % 0 lf 1008,4 hPa 0,0 l/m 0 min 0 min 67 W/m 27,2 km/h (4 Bft) 97,87 %
02.03.2017 12:36 7,4 C 7,8 C 6,7 C 71 % 0 lf 1008,4 hPa 0,0 l/m 0 min 0 min 70 W/m 37,7 km/h (5 Bft) 97,87 %
02.03.2017 12:38 7,4 C 7,8 C 6,7 C 71 % 0 lf 1008,4 hPa 0,0 l/m 0 min 0 min 67 W/m 33,5 km/h (5 Bft) 93,48 %
02.03.2017 12:40 7,4 C 7,8 C 6,7 C 72 % 0 lf 1008,4 hPa 0,0 l/m 0 min 2 min 68 W/m 31,4 km/h (5 Bft) 97,87 %
02.03.2017 12:42 7,4 C 7,8 C 6,7 C 72 % 1 lf 1008,5 hPa 0,0 l/m 0 min 0 min 74 W/m 31,4 km/h (5 Bft) 100,00 %
02.03.2017 12:44 7,4 C 7,8 C 6,7 C 72 % 0 lf 1008,5 hPa 0,0 l/m 0 min 0 min 80 W/m 41,8 km/h (6 Bft) 95,74 %
02.03.2017 12:46 7,4 C 7,8 C 6,7 C 72 % 0 lf 1008,6 hPa 0,0 l/m 0 min 0 min 77 W/m 31,4 km/h (5 Bft) 97,87 %
02.03.2017 12:48 7,4 C 8,3 C 6,7 C 72 % 0 lf 1008,6 hPa 0,0 l/m 0 min 0 min 74 W/m 31,4 km/h (5 Bft) 97,87 %
02.03.2017 12:50 7,4 C 7,8 C 6,7 C 72 % 0 lf 1008,6 hPa 0,0 l/m 0 min 0 min 80 W/m 39,7 km/h (6 Bft) 93,48 %
02.03.2017 12:52 7,4 C 8,3 C 6,7 C 72 % 0 lf 1008,6 hPa 0,0 l/m 0 min 0 min 85 W/m 43,9 km/h (6 Bft) 97,87 %
02.03.2017 12:54 7,5 C 8,3 C 6,7 C 72 % 3 lf 1008,7 hPa 0,0 l/m 0 min 0 min 79 W/m 31,4 km/h (5 Bft) 97,87 %
02.03.2017 12:56 7,5 C 8,3 C 6,7 C 72 % 0 lf 1008,6 hPa 0,0 l/m 0 min 0 min 85 W/m 20,9 km/h (4 Bft) 95,74 %
02.03.2017 12:58 7,5 C 8,3 C 6,7 C 72 % 0 lf 1008,6 hPa 0,0 l/m 0 min 0 min 96 W/m 29,3 km/h (5 Bft) 95,74 %
02.03.2017 13:00 7,5 C 8,3 C 6,7 C 72 % 0 lf 1008,6 hPa 0,0 l/m 0 min 0 min 103 W/m 33,5 km/h (5 Bft) 97,83 %
02.03.2017 13:02 7,5 C 8,3 C 6,7 C 72 % 0 lf 1008,7 hPa 0,0 l/m 0 min 0 min 94 W/m 41,8 km/h (6 Bft) 95,74 %
02.03.2017 13:04 7,6 C 8,3 C 6,7 C 72 % 0 lf 1008,8 hPa 0,0 l/m 0 min 0 min 93 W/m 29,3 km/h (5 Bft) 95,74 %
02.03.2017 13:06 7,6 C 8,3 C 7,2 C 72 % 0 lf 1008,7 hPa 0,0 l/m 0 min 0 min 108 W/m 31,4 km/h (5 Bft) 97,87 %
02.03.2017 13:08 7,6 C 8,3 C 6,7 C 71 % 0 lf 1008,7 hPa 0,0 l/m 0 min 0 min 94 W/m 37,7 km/h (5 Bft) 97,87 %
02.03.2017 13:10 7,6 C 8,3 C 6,7 C 71 % 0 lf 1008,8 hPa 0,0 l/m 0 min 0 min 78 W/m 23,0 km/h (4 Bft) 95,74 %
02.03.2017 13:12 7,6 C 8,3 C 6,7 C 72 % 0 lf 1008,8 hPa 0,0 l/m 0 min 0 min 69 W/m 23,0 km/h (4 Bft) 97,83 %
02.03.2017 13:14 7,6 C 8,3 C 6,7 C 72 % 0 lf 1008,8 hPa 0,0 l/m 0 min 0 min 59 W/m 20,9 km/h (4 Bft) 95,74 %
02.03.2017 13:16 7,6 C 8,3 C 6,7 C 72 % 0 lf 1008,8 hPa 0,0 l/m 0 min 0 min 59 W/m 27,2 km/h (4 Bft) 95,74 %
02.03.2017 13:18 7,6 C 8,3 C 6,7 C 72 % 0 lf 1008,9 hPa 0,0 l/m 0 min 0 min 70 W/m 27,2 km/h (4 Bft) 100,00 %
02.03.2017 13:20 7,6 C 8,3 C 6,7 C 72 % 0 lf 1008,8 hPa 0,0 l/m 0 min 0 min 139 W/m 33,5 km/h (5 Bft) 95,74 %
02.03.2017 13:22 7,6 C 8,9 C 7,2 C 73 % 2 lf 1008,8 hPa 0,0 l/m 0 min 2 min 254 W/m 29,3 km/h (5 Bft) 95,74 %
02.03.2017 13:24 7,6 C 9,4 C 7,8 C 74 % 0 lf 1008,8 hPa 0,0 l/m 0 min 0 min 244 W/m 29,3 km/h (5 Bft) 91,30 %
02.03.2017 13:26 7,7 C 9,4 C 8,3 C 74 % 0 lf 1008,8 hPa 0,0 l/m 2 min 0 min 267 W/m 23,0 km/h (4 Bft) 97,87 %
02.03.2017 13:28 7,7 C 9,4 C 7,8 C 74 % 0 lf 1008,8 hPa 0,0 l/m 0 min 0 min 236 W/m 43,9 km/h (6 Bft) 97,87 %
02.03.2017 13:30 7,7 C 8,9 C 7,8 C 74 % 0 lf 1008,9 hPa 0,0 l/m 0 min 0 min 159 W/m 35,6 km/h (5 Bft) 93,62 %
02.03.2017 13:32 7,7 C 8,9 C 7,2 C 74 % 0 lf 1009,0 hPa 0,0 l/m 0 min 0 min 115 W/m 46,0 km/h (6 Bft) 89,36 %
02.03.2017 13:34 7,7 C 7,8 C 6,7 C 74 % 13 lf 1009,0 hPa 0,0 l/m 0 min 2 min 101 W/m 29,3 km/h (5 Bft) 95,74 %
02.03.2017 13:36 7,7 C 7,8 C 6,7 C 75 % 9 lf 1009,0 hPa 0,0 l/m 0 min 2 min 96 W/m 29,3 km/h (5 Bft) 95,65 %
02.03.2017 13:38 7,7 C 7,8 C 6,1 C 75 % 0 lf 1008,9 hPa 0,0 l/m 0 min 0 min 82 W/m 35,6 km/h (5 Bft) 91,49 %
02.03.2017 13:40 7,7 C 7,8 C 6,1 C 76 % 1 lf 1008,9 hPa 0,0 l/m 0 min 2 min 84 W/m 37,7 km/h (5 Bft) 95,74 %
02.03.2017 13:42 7,6 C 7,8 C 6,1 C 76 % 13 lf 1009,0 hPa 0,0 l/m 0 min 2 min 108 W/m 41,8 km/h (6 Bft) 95,74 %
02.03.2017 13:44 7,5 C 7,8 C 6,1 C 76 % 3 lf 1009,0 hPa 0,0 l/m 0 min 0 min 125 W/m 37,7 km/h (5 Bft) 93,62 %
02.03.2017 13:46 7,4 C 7,8 C 6,1 C 77 % 0 lf 1009,0 hPa 0,0 l/m 0 min 0 min 126 W/m 27,2 km/h (4 Bft) 95,74 %
02.03.2017 13:48 7,4 C 8,3 C 6,7 C 77 % 0 lf 1009,0 hPa 0,0 l/m 0 min 0 min 131 W/m 27,2 km/h (4 Bft) 93,48 %
02.03.2017 13:50 7,4 C 8,3 C 6,7 C 77 % 0 lf 1009,0 hPa 0,0 l/m 0 min 0 min 153 W/m 29,3 km/h (5 Bft) 93,62 %
02.03.2017 13:52 7,4 C 8,3 C 7,2 C 77 % 0 lf 1009,0 hPa 0,0 l/m 0 min 0 min 164 W/m 29,3 km/h (5 Bft) 95,74 %
02.03.2017 13:54 7,4 C 8,3 C 7,2 C 77 % 0 lf 1009,0 hPa 0,0 l/m 0 min 0 min 148 W/m 27,2 km/h (4 Bft) 91,49 %
02.03.2017 13:56 7,4 C 8,3 C 7,2 C 77 % 0 lf 1009,0 hPa 0,0 l/m 0 min 0 min 124 W/m 31,4 km/h (5 Bft) 93,62 %
02.03.2017 13:58 7,4 C 8,3 C 7,2 C 77 % 0 lf 1008,9 hPa 0,0 l/m 0 min 0 min 120 W/m 23,0 km/h (4 Bft) 93,62 %
02.03.2017 14:00 7,4 C 8,3 C 7,2 C 77 % 0 lf 1009,0 hPa 0,0 l/m 0 min 0 min 123 W/m 25,1 km/h (4 Bft) 93,48 %
02.03.2017 14:02 7,5 C 8,9 C 7,8 C 77 % 0 lf 1009,0 hPa 0,0 l/m 0 min 0 min 169 W/m 25,1 km/h (4 Bft) 97,87 %
02.03.2017 14:04 7,5 C 8,9 C 7,8 C 77 % 0 lf 1009,0 hPa 0,0 l/m 0 min 0 min 202 W/m 25,1 km/h (4 Bft) 95,74 %
02.03.2017 14:06 7,6 C 8,9 C 7,8 C 77 % 0 lf 1009,1 hPa 0,0 l/m 0 min 0 min 192 W/m 33,5 km/h (5 Bft) 87,23 %
02.03.2017 14:08 7,6 C 9,4 C 7,8 C 77 % 0 lf 1009,1 hPa 0,0 l/m 0 min 0 min 187 W/m 23,0 km/h (4 Bft) 95,74 %
02.03.2017 14:10 7,6 C 9,4 C 8,3 C 77 % 0 lf 1009,1 hPa 0,0 l/m 0 min 0 min 187 W/m 23,0 km/h (4 Bft) 95,65 %
02.03.2017 14:12 7,7 C 9,4 C 7,8 C 77 % 0 lf 1009,2 hPa 0,0 l/m 0 min 0 min 173 W/m 31,4 km/h (5 Bft) 97,87 %
02.03.2017 14:14 7,7 C 9,4 C 7,8 C 77 % 0 lf 1009,2 hPa 0,0 l/m 0 min 0 min 166 W/m 35,6 km/h (5 Bft) 97,87 %
02.03.2017 14:16 7,7 C 8,9 C 7,8 C 76 % 0 lf 1009,2 hPa 0,0 l/m 0 min 0 min 162 W/m 35,6 km/h (5 Bft) 87,23 %
02.03.2017 14:18 7,8 C 8,9 C 7,8 C 75 % 0 lf 1009,2 hPa 0,0 l/m 0 min 0 min 157 W/m 33,5 km/h (5 Bft) 97,87 %
02.03.2017 14:20 7,8 C 9,4 C 7,8 C 75 % 0 lf 1009,2 hPa 0,0 l/m 0 min 0 min 178 W/m 33,5 km/h (5 Bft) 93,62 %
02.03.2017 14:22 7,9 C 9,4 C 7,8 C 75 % 0 lf 1009,2 hPa 0,0 l/m 0 min 0 min 168 W/m 39,7 km/h (6 Bft) 97,83 %
02.03.2017 14:24 7,9 C 9,4 C 7,8 C 74 % 0 lf 1009,1 hPa 0,0 l/m 0 min 0 min 157 W/m 31,4 km/h (5 Bft) 100,00 %
02.03.2017 14:26 8,0 C 9,4 C 7,8 C 73 % 0 lf 1009,2 hPa 0,0 l/m 0 min 0 min 129 W/m 41,8 km/h (6 Bft) 91,49 %
02.03.2017 14:28 8,0 C 8,9 C 7,8 C 71 % 0 lf 1009,2 hPa 0,0 l/m 0 min 0 min 122 W/m 43,9 km/h (6 Bft) 95,74 %
02.03.2017 14:30 8,1 C 8,9 C 7,8 C 71 % 0 lf 1009,2 hPa 0,0 l/m 0 min 0 min 136 W/m 41,8 km/h (6 Bft) 97,87 %
02.03.2017 14:32 8,1 C 8,9 C 7,8 C 70 % 10 lf 1009,3 hPa 0,0 l/m 0 min 2 min 138 W/m 39,7 km/h (6 Bft) 95,74 %
02.03.2017 14:34 8,1 C 8,9 C 7,2 C 70 % 4 lf 1009,4 hPa 0,0 l/m 0 min 2 min 123 W/m 35,6 km/h (5 Bft) 95,65 %
02.03.2017 14:36 8,1 C 8,9 C 7,2 C 71 % 3 lf 1009,4 hPa 0,0 l/m 0 min 2 min 118 W/m 39,7 km/h (6 Bft) 97,87 %
02.03.2017 14:38 8,1 C 8,3 C 6,7 C 71 % 9 lf 1009,4 hPa 0,0 l/m 0 min 2 min 127 W/m 41,8 km/h (6 Bft) 91,49 %
02.03.2017 14:40 8,1 C 8,9 C 6,7 C 72 % 0 lf 1009,4 hPa 0,0 l/m 0 min 0 min 158 W/m 37,7 km/h (5 Bft) 91,49 %
02.03.2017 14:42 8,1 C 8,9 C 6,7 C 72 % 8 lf 1009,4 hPa 0,0 l/m 0 min 2 min 182 W/m 48,1 km/h (6 Bft) 95,74 %
02.03.2017 14:44 8,1 C 9,4 C 7,2 C 71 % 3 lf 1009,4 hPa 0,0 l/m 0 min 2 min 200 W/m 37,7 km/h (5 Bft) 97,87 %
02.03.2017 14:46 8,1 C 9,4 C 7,8 C 72 % 0 lf 1009,4 hPa 0,0 l/m 0 min 0 min 207 W/m 37,7 km/h (5 Bft) 95,65 %
02.03.2017 14:48 8,1 C 10,0 C 7,8 C 72 % 0 lf 1009,5 hPa 0,0 l/m 0 min 0 min 214 W/m 37,7 km/h (5 Bft) 95,74 %
02.03.2017 14:50 8,1 C 10,0 C 8,3 C 72 % 1 lf 1009,5 hPa 0,0 l/m 2 min 0 min 232 W/m 37,7 km/h (5 Bft) 93,62 %
02.03.2017 14:52 8,2 C 10,6 C 8,3 C 71 % 0 lf 1009,5 hPa 0,0 l/m 2 min 0 min 273 W/m 37,7 km/h (5 Bft) 95,74 %
02.03.2017 14:54 8,2 C 11,7 C 8,9 C 72 % 0 lf 1009,5 hPa 0,0 l/m 2 min 0 min 351 W/m 35,6 km/h (5 Bft) 95,74 %
02.03.2017 14:56 8,3 C 12,8 C 8,9 C 71 % 0 lf 1009,5 hPa 0,0 l/m 2 min 0 min 454 W/m 37,7 km/h (5 Bft) 95,74 %
02.03.2017 14:58 8,5 C 13,9 C 9,4 C 71 % 0 lf 1009,6 hPa 0,0 l/m 2 min 0 min 492 W/m 43,9 km/h (6 Bft) 91,30 %
02.03.2017 15:00 8,6 C 14,4 C 9,4 C 71 % 0 lf 1009,6 hPa 0,0 l/m 2 min 0 min 464 W/m 33,5 km/h (5 Bft) 91,49 %
02.03.2017 15:02 8,7 C 15,0 C 9,4 C 71 % 0 lf 1009,6 hPa 0,0 l/m 2 min 0 min 470 W/m 39,7 km/h (6 Bft) 95,74 %
02.03.2017 15:04 8,9 C 14,4 C 9,4 C 70 % 0 lf 1009,7 hPa 0,0 l/m 2 min 0 min 420 W/m 35,6 km/h (5 Bft) 95,74 %
02.03.2017 15:06 9,0 C 14,4 C 8,9 C 70 % 0 lf 1009,7 hPa 0,0 l/m 2 min 0 min 432 W/m 35,6 km/h (5 Bft) 93,62 %
02.03.2017 15:08 9,1 C 12,8 C 8,9 C 69 % 0 lf 1009,7 hPa 0,0 l/m 2 min 2 min 440 W/m 33,5 km/h (5 Bft) 95,74 %
02.03.2017 15:10 9,1 C 11,7 C 8,9 C 69 % 1 lf 1009,7 hPa 0,0 l/m 2 min 0 min 566 W/m 31,4 km/h (5 Bft) 95,65 %
02.03.2017 15:12 9,2 C 10,6 C 8,3 C 69 % 0 lf 1009,7 hPa 0,0 l/m 2 min 0 min 477 W/m 33,5 km/h (5 Bft) 91,49 %
02.03.2017 15:14 9,1 C 10,6 C 8,3 C 69 % 0 lf 1009,8 hPa 0,0 l/m 2 min 0 min 227 W/m 27,2 km/h (4 Bft) 93,62 %
02.03.2017 15:16 9,1 C 10,6 C 8,3 C 69 % 0 lf 1009,8 hPa 0,0 l/m 0 min 0 min 155 W/m 37,7 km/h (5 Bft) 95,74 %
02.03.2017 15:18 9,1 C 10,0 C 8,3 C 69 % 0 lf 1009,8 hPa 0,0 l/m 0 min 0 min 109 W/m 41,8 km/h (6 Bft) 95,74 %
02.03.2017 15:20 9,0 C 10,0 C 7,8 C 68 % 0 lf 1009,8 hPa 0,0 l/m 0 min 0 min 88 W/m 35,6 km/h (5 Bft) 97,83 %
02.03.2017 15:22 8,9 C 9,4 C 7,8 C 68 % 1 lf 1009,9 hPa 0,0 l/m 0 min 2 min 80 W/m 31,4 km/h (5 Bft) 93,62 %
02.03.2017 15:24 8,9 C 9,4 C 7,8 C 69 % 0 lf 1009,9 hPa 0,0 l/m 0 min 0 min 70 W/m 27,2 km/h (4 Bft) 91,49 %
02.03.2017 15:26 8,8 C 8,9 C 7,8 C 69 % 1 lf 1009,9 hPa 0,0 l/m 0 min 0 min 61 W/m 29,3 km/h (5 Bft) 100,00 %
02.03.2017 15:28 8,8 C 8,9 C 7,2 C 69 % 3 lf 1010,0 hPa 0,0 l/m 0 min 2 min 56 W/m 27,2 km/h (4 Bft) 95,74 %
02.03.2017 15:30 8,7 C 8,9 C 7,2 C 69 % 0 lf 1010,0 hPa 0,0 l/m 0 min 2 min 61 W/m 31,4 km/h (5 Bft) 97,87 %
02.03.2017 15:32 8,7 C 8,9 C 7,2 C 69 % 2 lf 1010,0 hPa 0,0 l/m 0 min 2 min 63 W/m 33,5 km/h (5 Bft) 97,83 %
02.03.2017 15:34 8,6 C 8,9 C 7,2 C 69 % 0 lf 1010,0 hPa 0,0 l/m 0 min 0 min 60 W/m 20,9 km/h (4 Bft) 97,87 %
02.03.2017 15:36 8,6 C 8,9 C 7,2 C 70 % 0 lf 1010,1 hPa 0,0 l/m 0 min 0 min 64 W/m 27,2 km/h (4 Bft) 100,00 %
02.03.2017 15:38 8,5 C 8,9 C 7,2 C 70 % 10 lf 1010,1 hPa 0,0 l/m 0 min 2 min 78 W/m 27,2 km/h (4 Bft) 97,87 %
02.03.2017 15:40 8,5 C 8,9 C 7,2 C 70 % 7 lf 1010,1 hPa 0,0 l/m 0 min 2 min 93 W/m 18,8 km/h (3 Bft) 100,00 %
02.03.2017 15:42 8,4 C 8,9 C 7,2 C 71 % 0 lf 1010,2 hPa 0,0 l/m 0 min 0 min 82 W/m 18,8 km/h (3 Bft) 100,00 %
02.03.2017 15:44 8,4 C 8,9 C 7,8 C 71 % 0 lf 1010,2 hPa 0,0 l/m 0 min 0 min 95 W/m 37,7 km/h (5 Bft) 100,00 %
02.03.2017 15:46 8,4 C 9,4 C 7,8 C 70 % 0 lf 1010,1 hPa 0,0 l/m 0 min 0 min 113 W/m 31,4 km/h (5 Bft) 97,87 %
02.03.2017 15:48 8,4 C 9,4 C 7,8 C 69 % 0 lf 1010,1 hPa 0,0 l/m 0 min 0 min 115 W/m 27,2 km/h (4 Bft) 95,74 %
02.03.2017 15:50 8,4 C 9,4 C 7,8 C 69 % 0 lf 1010,2 hPa 0,0 l/m 0 min 0 min 99 W/m 27,2 km/h (4 Bft) 97,87 %
02.03.2017 15:52 8,4 C 8,9 C 7,8 C 69 % 0 lf 1010,2 hPa 0,0 l/m 0 min 0 min 79 W/m 31,4 km/h (5 Bft) 100,00 %
02.03.2017 15:54 8,4 C 8,9 C 7,2 C 69 % 2 lf 1010,1 hPa 0,0 l/m 0 min 0 min 67 W/m 37,7 km/h (5 Bft) 97,87 %
02.03.2017 15:56 8,4 C 8,9 C 7,2 C 70 % 0 lf 1010,2 hPa 0,0 l/m 0 min 0 min 76 W/m 18,8 km/h (3 Bft) 97,83 %
02.03.2017 15:58 8,4 C 8,9 C 7,2 C 70 % 0 lf 1010,2 hPa 0,0 l/m 0 min 0 min 75 W/m 33,5 km/h (5 Bft) 100,00 %
02.03.2017 16:00 8,4 C 8,9 C 7,2 C 70 % 0 lf 1010,2 hPa 0,0 l/m 0 min 0 min 81 W/m 37,7 km/h (5 Bft) 100,00 %
02.03.2017 16:02 8,4 C 8,9 C 7,8 C 70 % 0 lf 1010,4 hPa 0,0 l/m 0 min 0 min 89 W/m 33,5 km/h (5 Bft) 100,00 %
02.03.2017 16:04 8,4 C 8,9 C 7,8 C 70 % 0 lf 1010,2 hPa 0,0 l/m 0 min 0 min 86 W/m 33,5 km/h (5 Bft) 100,00 %
02.03.2017 16:06 8,4 C 8,9 C 7,8 C 70 % 0 lf 1010,3 hPa 0,0 l/m 0 min 0 min 82 W/m 33,5 km/h (5 Bft) 100,00 %
02.03.2017 16:08 8,4 C 8,9 C 7,8 C 69 % 0 lf 1010,3 hPa 0,0 l/m 0 min 0 min 91 W/m 37,7 km/h (5 Bft) 97,83 %
02.03.2017 16:10 8,4 C 8,9 C 7,8 C 69 % 0 lf 1010,3 hPa 0,0 l/m 0 min 0 min 87 W/m 37,7 km/h (5 Bft) 97,87 %
02.03.2017 16:12 8,4 C 8,9 C 7,8 C 69 % 0 lf 1010,4 hPa 0,0 l/m 0 min 0 min 74 W/m 37,7 km/h (5 Bft) 100,00 %
02.03.2017 16:14 8,4 C 8,9 C 7,2 C 70 % 0 lf 1010,4 hPa 0,0 l/m 0 min 0 min 68 W/m 41,8 km/h (6 Bft) 95,74 %
02.03.2017 16:16 8,4 C 8,9 C 7,8 C 69 % 0 lf 1010,4 hPa 0,0 l/m 0 min 0 min 70 W/m 50,2 km/h (7 Bft) 97,87 %
02.03.2017 16:18 8,4 C 8,9 C 7,8 C 69 % 0 lf 1010,4 hPa 0,0 l/m 0 min 0 min 75 W/m 35,6 km/h (5 Bft) 95,74 %
02.03.2017 16:20 8,5 C 8,9 C 7,8 C 69 % 0 lf 1010,5 hPa 0,0 l/m 0 min 0 min 78 W/m 43,9 km/h (6 Bft) 95,65 %
02.03.2017 16:22 8,5 C 8,9 C 7,8 C 69 % 0 lf 1010,5 hPa 0,0 l/m 0 min 0 min 78 W/m 41,8 km/h (6 Bft) 93,62 %
02.03.2017 16:24 8,5 C 8,9 C 7,8 C 69 % 0 lf 1010,6 hPa 0,0 l/m 0 min 0 min 69 W/m 35,6 km/h (5 Bft) 93,62 %
02.03.2017 16:26 8,6 C 8,9 C 7,8 C 69 % 0 lf 1010,6 hPa 0,0 l/m 0 min 0 min 68 W/m 41,8 km/h (6 Bft) 93,62 %
02.03.2017 16:28 8,5 C 8,9 C 7,8 C 69 % 0 lf 1010,5 hPa 0,0 l/m 0 min 0 min 71 W/m 33,5 km/h (5 Bft) 95,74 %
02.03.2017 16:30 8,6 C 8,9 C 7,8 C 69 % 0 lf 1010,7 hPa 0,0 l/m 0 min 0 min 68 W/m 37,7 km/h (5 Bft) 95,74 %
02.03.2017 16:32 8,6 C 8,9 C 7,8 C 69 % 0 lf 1010,6 hPa 0,0 l/m 0 min 0 min 72 W/m 41,8 km/h (6 Bft) 93,48 %
02.03.2017 16:34 8,6 C 8,9 C 7,8 C 69 % 0 lf 1010,7 hPa 0,0 l/m 0 min 0 min 75 W/m 39,7 km/h (6 Bft) 93,62 %
02.03.2017 16:36 8,6 C 8,9 C 7,8 C 69 % 0 lf 1010,7 hPa 0,0 l/m 0 min 0 min 76 W/m 39,7 km/h (6 Bft) 95,74 %
02.03.2017 16:38 8,6 C 8,9 C 7,8 C 69 % 0 lf 1010,8 hPa 0,0 l/m 0 min 0 min 78 W/m 35,6 km/h (5 Bft) 93,62 %
02.03.2017 16:40 8,6 C 9,4 C 7,8 C 69 % 0 lf 1010,8 hPa 0,0 l/m 0 min 0 min 79 W/m 37,7 km/h (5 Bft) 93,62 %
02.03.2017 16:42 8,6 C 9,4 C 7,8 C 69 % 0 lf 1010,7 hPa 0,0 l/m 0 min 0 min 85 W/m 29,3 km/h (5 Bft) 91,30 %
02.03.2017 16:44 8,6 C 9,4 C 7,8 C 70 % 0 lf 1010,8 hPa 0,0 l/m 0 min 0 min 90 W/m 29,3 km/h (5 Bft) 95,74 %
02.03.2017 16:46 8,6 C 9,4 C 7,8 C 69 % 0 lf 1010,8 hPa 0,0 l/m 0 min 0 min 92 W/m 35,6 km/h (5 Bft) 95,74 %
02.03.2017 16:48 8,6 C 9,4 C 7,8 C 70 % 0 lf 1010,9 hPa 0,0 l/m 0 min 0 min 92 W/m 27,2 km/h (4 Bft) 91,49 %
02.03.2017 16:50 8,6 C 9,4 C 7,8 C 69 % 0 lf 1011,0 hPa 0,0 l/m 0 min 0 min 94 W/m 43,9 km/h (6 Bft) 91,49 %
02.03.2017 16:52 8,6 C 9,4 C 7,8 C 69 % 0 lf 1011,0 hPa 0,0 l/m 0 min 0 min 89 W/m 39,7 km/h (6 Bft) 89,36 %
02.03.2017 16:54 8,6 C 9,4 C 7,8 C 69 % 0 lf 1010,9 hPa 0,0 l/m 0 min 0 min 79 W/m 23,0 km/h (4 Bft) 93,48 %
02.03.2017 16:56 8,6 C 9,4 C 7,8 C 69 % 0 lf 1010,9 hPa 0,0 l/m 0 min 0 min 85 W/m 25,1 km/h (4 Bft) 91,49 %
02.03.2017 16:58 8,6 C 9,4 C 7,8 C 69 % 0 lf 1011,0 hPa 0,0 l/m 0 min 0 min 77 W/m 39,7 km/h (6 Bft) 89,36 %
02.03.2017 17:00 8,6 C 9,4 C 7,8 C 69 % 0 lf 1011,0 hPa 0,0 l/m 0 min 0 min 66 W/m 33,5 km/h (5 Bft) 93,62 %
02.03.2017 17:02 8,6 C 9,4 C 7,8 C 69 % 0 lf 1011,1 hPa 0,0 l/m 0 min 0 min 74 W/m 43,9 km/h (6 Bft) 93,62 %
02.03.2017 17:04 8,6 C 9,4 C 7,2 C 69 % 0 lf 1011,0 hPa 0,0 l/m 0 min 0 min 65 W/m 20,9 km/h (4 Bft) 93,62 %
02.03.2017 17:06 8,6 C 8,9 C 7,2 C 69 % 0 lf 1011,0 hPa 0,0 l/m 0 min 0 min 55 W/m 31,4 km/h (5 Bft) 91,30 %
02.03.2017 17:08 8,6 C 8,9 C 7,2 C 69 % 0 lf 1011,2 hPa 0,0 l/m 0 min 0 min 49 W/m 33,5 km/h (5 Bft) 93,62 %
02.03.2017 17:10 8,6 C 8,9 C 7,2 C 69 % 0 lf 1011,2 hPa 0,0 l/m 0 min 0 min 44 W/m 29,3 km/h (5 Bft) 95,74 %
02.03.2017 17:12 8,6 C 8,9 C 7,2 C 69 % 0 lf 1011,3 hPa 0,0 l/m 0 min 0 min 39 W/m 27,2 km/h (4 Bft) 95,74 %
02.03.2017 17:14 8,6 C 8,9 C 7,2 C 69 % 0 lf 1011,3 hPa 0,0 l/m 0 min 0 min 34 W/m 33,5 km/h (5 Bft) 95,74 %
02.03.2017 17:16 8,6 C 8,9 C 7,2 C 69 % 0 lf 1011,3 hPa 0,0 l/m 0 min 0 min 32 W/m 37,7 km/h (5 Bft) 91,49 %
02.03.2017 17:18 8,5 C 8,9 C 7,2 C 69 % 0 lf 1011,5 hPa 0,0 l/m 0 min 0 min 32 W/m 29,3 km/h (5 Bft) 100,00 %
02.03.2017 17:20 8,5 C 8,9 C 7,2 C 69 % 0 lf 1011,5 hPa 0,0 l/m 0 min 0 min 28 W/m 25,1 km/h (4 Bft) 97,87 %
02.03.2017 17:22 8,5 C 8,9 C 7,2 C 70 % 0 lf 1011,5 hPa 0,0 l/m 0 min 0 min 30 W/m 33,5 km/h (5 Bft) 100,00 %
02.03.2017 17:24 8,5 C 8,9 C 7,2 C 70 % 0 lf 1011,5 hPa 0,0 l/m 0 min 0 min 30 W/m 29,3 km/h (5 Bft) 97,87 %
02.03.2017 17:26 8,5 C 8,9 C 7,2 C 70 % 0 lf 1011,5 hPa 0,0 l/m 0 min 0 min 24 W/m 25,1 km/h (4 Bft) 100,00 %
02.03.2017 17:28 8,5 C 8,9 C 7,2 C 70 % 0 lf 1011,6 hPa 0,0 l/m 0 min 0 min 14 W/m 27,2 km/h (4 Bft) 97,87 %
02.03.2017 17:30 8,4 C 8,9 C 7,2 C 70 % 0 lf 1011,6 hPa 0,0 l/m 0 min 0 min 12 W/m 37,7 km/h (5 Bft) 100,00 %
02.03.2017 17:32 8,4 C 8,3 C 7,2 C 70 % 0 lf 1011,7 hPa 0,0 l/m 0 min 0 min 12 W/m 29,3 km/h (5 Bft) 100,00 %
02.03.2017 17:34 8,4 C 8,3 C 6,7 C 70 % 0 lf 1011,7 hPa 0,0 l/m 0 min 0 min 10 W/m 23,0 km/h (4 Bft) 100,00 %
02.03.2017 17:36 8,4 C 8,3 C 6,7 C 70 % 0 lf 1011,8 hPa 0,0 l/m 0 min 0 min 9 W/m 33,5 km/h (5 Bft) 97,87 %
02.03.2017 17:38 8,4 C 8,3 C 6,7 C 70 % 0 lf 1011,9 hPa 0,0 l/m 0 min 0 min 11 W/m 23,0 km/h (4 Bft) 100,00 %
02.03.2017 17:40 8,4 C 8,3 C 6,7 C 71 % 0 lf 1011,9 hPa 0,0 l/m 0 min 0 min 11 W/m 29,3 km/h (5 Bft) 97,87 %
02.03.2017 17:42 8,4 C 8,3 C 6,7 C 71 % 0 lf 1011,9 hPa 0,0 l/m 0 min 0 min 10 W/m 27,2 km/h (4 Bft) 97,83 %
02.03.2017 17:44 8,4 C 8,3 C 6,7 C 70 % 0 lf 1012,0 hPa 0,0 l/m 0 min 0 min 9 W/m 41,8 km/h (6 Bft) 97,87 %
02.03.2017 17:46 8,3 C 8,3 C 6,7 C 70 % 0 lf 1012,0 hPa 0,0 l/m 0 min 0 min 8 W/m 29,3 km/h (5 Bft) 97,87 %
02.03.2017 17:48 8,3 C 8,3 C 6,7 C 70 % 0 lf 1012,0 hPa 0,0 l/m 0 min 0 min 7 W/m 18,8 km/h (3 Bft) 97,87 %
02.03.2017 17:50 8,3 C 8,3 C 6,7 C 70 % 0 lf 1012,0 hPa 0,0 l/m 0 min 0 min 7 W/m 31,4 km/h (5 Bft) 100,00 %
02.03.2017 17:52 8,3 C 8,3 C 6,7 C 70 % 0 lf 1012,1 hPa 0,0 l/m 0 min 0 min 7 W/m 16,7 km/h (3 Bft) 97,83 %
02.03.2017 17:54 8,3 C 8,3 C 6,7 C 71 % 0 lf 1012,1 hPa 0,0 l/m 0 min 0 min 9 W/m 31,4 km/h (5 Bft) 95,74 %
02.03.2017 17:56 8,3 C 8,3 C 6,7 C 71 % 0 lf 1012,1 hPa 0,0 l/m 0 min 0 min 7 W/m 33,5 km/h (5 Bft) 97,87 %
02.03.2017 17:58 8,3 C 8,3 C 6,7 C 71 % 0 lf 1012,1 hPa 0,0 l/m 0 min 0 min 7 W/m 29,3 km/h (5 Bft) 97,87 %
02.03.2017 18:00 8,3 C 8,3 C 6,7 C 71 % 0 lf 1012,2 hPa 0,0 l/m 0 min 0 min 7 W/m 27,2 km/h (4 Bft) 100,00 %
02.03.2017 18:02 8,3 C 8,3 C 6,7 C 71 % 0 lf 1012,2 hPa 0,0 l/m 0 min 0 min 7 W/m 23,0 km/h (4 Bft) 97,87 %
02.03.2017 18:04 8,3 C 8,3 C 6,7 C 71 % 0 lf 1012,3 hPa 0,0 l/m 0 min 0 min 5 W/m 29,3 km/h (5 Bft) 91,49 %
02.03.2017 18:06 8,3 C 8,3 C 6,7 C 71 % 0 lf 1012,3 hPa 0,0 l/m 0 min 0 min 4 W/m 33,5 km/h (5 Bft) 97,87 %
02.03.2017 18:08 8,3 C 8,3 C 6,7 C 71 % 0 lf 1012,3 hPa 0,0 l/m 0 min 0 min 3 W/m 23,0 km/h (4 Bft) 97,87 %
02.03.2017 18:10 8,3 C 8,3 C 6,7 C 71 % 0 lf 1012,3 hPa 0,0 l/m 0 min 0 min 3 W/m 29,3 km/h (5 Bft) 97,87 %
02.03.2017 18:12 8,2 C 8,3 C 6,7 C 71 % 0 lf 1012,3 hPa 0,0 l/m 0 min 0 min 3 W/m 29,3 km/h (5 Bft) 97,83 %
02.03.2017 18:14 8,2 C 8,3 C 6,7 C 71 % 0 lf 1012,3 hPa 0,0 l/m 0 min 0 min 3 W/m 27,2 km/h (4 Bft) 93,62 %
02.03.2017 18:16 8,2 C 8,3 C 6,7 C 71 % 0 lf 1012,4 hPa 0,0 l/m 0 min 0 min 3 W/m 31,4 km/h (5 Bft) 95,74 %
02.03.2017 18:18 8,2 C 8,3 C 6,7 C 71 % 0 lf 1012,4 hPa 0,0 l/m 0 min 0 min 2 W/m 23,0 km/h (4 Bft) 97,87 %
02.03.2017 18:20 8,2 C 8,3 C 6,7 C 71 % 0 lf 1012,4 hPa 0,0 l/m 0 min 0 min 2 W/m 18,8 km/h (3 Bft) 95,74 %
02.03.2017 18:22 8,2 C 8,3 C 6,7 C 72 % 0 lf 1012,5 hPa 0,0 l/m 0 min 0 min 2 W/m 20,9 km/h (4 Bft) 97,83 %
02.03.2017 18:24 8,2 C 8,3 C 6,7 C 71 % 0 lf 1012,5 hPa 0,0 l/m 0 min 0 min 0 W/m 35,6 km/h (5 Bft) 97,87 %
02.03.2017 18:26 8,2 C 8,3 C 6,7 C 71 % 0 lf 1012,4 hPa 0,0 l/m 0 min 0 min 0 W/m 35,6 km/h (5 Bft) 93,62 %
02.03.2017 18:28 8,2 C 8,3 C 6,7 C 71 % 0 lf 1012,5 hPa 0,0 l/m 0 min 0 min 0 W/m 20,9 km/h (4 Bft) 97,87 %
02.03.2017 18:30 8,2 C 8,3 C 6,7 C 72 % 0 lf 1012,5 hPa 0,0 l/m 0 min 0 min 0 W/m 20,9 km/h (4 Bft) 95,74 %
02.03.2017 18:32 8,2 C 8,3 C 6,7 C 72 % 0 lf 1012,6 hPa 0,0 l/m 0 min 0 min 0 W/m 18,8 km/h (3 Bft) 95,74 %
02.03.2017 18:34 8,2 C 8,3 C 6,7 C 72 % 0 lf 1012,6 hPa 0,0 l/m 0 min 0 min 0 W/m 23,0 km/h (4 Bft) 97,83 %
02.03.2017 18:36 8,2 C 8,3 C 6,7 C 72 % 0 lf 1012,7 hPa 0,0 l/m 0 min 0 min 0 W/m 14,6 km/h (3 Bft) 97,87 %
02.03.2017 18:38 8,1 C 8,3 C 6,7 C 72 % 0 lf 1012,7 hPa 0,0 l/m 0 min 0 min 0 W/m 16,7 km/h (3 Bft) 93,62 %
02.03.2017 18:40 8,1 C 8,3 C 6,7 C 72 % 0 lf 1012,8 hPa 0,0 l/m 0 min 0 min 0 W/m 20,9 km/h (4 Bft) 95,74 %
02.03.2017 18:42 8,1 C 8,3 C 6,7 C 72 % 0 lf 1012,7 hPa 0,0 l/m 0 min 0 min 0 W/m 20,9 km/h (4 Bft) 91,49 %
02.03.2017 18:44 8,1 C 8,3 C 6,1 C 72 % 0 lf 1012,8 hPa 0,0 l/m 0 min 0 min 0 W/m 27,2 km/h (4 Bft) 95,74 %
02.03.2017 18:46 8,1 C 8,3 C 6,1 C 72 % 0 lf 1012,8 hPa 0,0 l/m 0 min 0 min 0 W/m 16,7 km/h (3 Bft) 95,65 %
02.03.2017 18:48 8,1 C 8,3 C 6,1 C 72 % 0 lf 1012,9 hPa 0,0 l/m 0 min 0 min 0 W/m 20,9 km/h (4 Bft) 97,87 %
02.03.2017 18:50 8,1 C 8,3 C 6,1 C 72 % 0 lf 1013,0 hPa 0,0 l/m 0 min 0 min 0 W/m 20,9 km/h (4 Bft) 95,74 %
02.03.2017 18:52 8,0 C 8,3 C 6,1 C 72 % 0 lf 1013,1 hPa 0,0 l/m 0 min 0 min 0 W/m 18,8 km/h (3 Bft) 95,74 %
02.03.2017 18:54 8,0 C 8,3 C 6,1 C 72 % 0 lf 1013,1 hPa 0,0 l/m 0 min 0 min 0 W/m 16,7 km/h (3 Bft) 93,62 %
02.03.2017 18:56 8,0 C 7,8 C 6,1 C 72 % 0 lf 1013,2 hPa 0,0 l/m 0 min 0 min 0 W/m 18,8 km/h (3 Bft) 89,36 %
02.03.2017 18:58 8,0 C 8,3 C 6,1 C 72 % 0 lf 1013,2 hPa 0,0 l/m 0 min 0 min 0 W/m 20,9 km/h (4 Bft) 93,48 %
02.03.2017 19:00 8,0 C 8,3 C 6,1 C 72 % 0 lf 1013,1 hPa 0,0 l/m 0 min 0 min 0 W/m 20,9 km/h (4 Bft) 93,62 %
02.03.2017 19:02 8,0 C 7,8 C 6,1 C 73 % 0 lf 1013,2 hPa 0,0 l/m 0 min 0 min 0 W/m 18,8 km/h (3 Bft) 93,62 %
02.03.2017 19:04 8,0 C 8,3 C 6,1 C 73 % 0 lf 1013,2 hPa 0,0 l/m 0 min 0 min 0 W/m 20,9 km/h (4 Bft) 93,62 %
02.03.2017 19:06 7,9 C 8,3 C 6,1 C 73 % 0 lf 1013,1 hPa 0,0 l/m 0 min 0 min 0 W/m 14,6 km/h (3 Bft) 91,49 %
02.03.2017 19:08 7,9 C 8,3 C 6,1 C 73 % 0 lf 1013,2 hPa 0,0 l/m 0 min 0 min 0 W/m 18,8 km/h (3 Bft) 89,36 %
02.03.2017 19:10 7,9 C 7,8 C 6,1 C 73 % 0 lf 1013,2 hPa 0,0 l/m 0 min 0 min 0 W/m 16,7 km/h (3 Bft) 91,30 %
02.03.2017 19:12 7,9 C 7,8 C 6,1 C 73 % 0 lf 1013,2 hPa 0,0 l/m 0 min 0 min 0 W/m 16,7 km/h (3 Bft) 89,36 %
02.03.2017 19:14 7,9 C 8,3 C 6,1 C 73 % 0 lf 1013,3 hPa 0,0 l/m 0 min 0 min 0 W/m 20,9 km/h (4 Bft) 95,74 %
02.03.2017 19:16 7,9 C 8,3 C 6,1 C 73 % 0 lf 1013,3 hPa 0,0 l/m 0 min 0 min 0 W/m 23,0 km/h (4 Bft) 95,74 %
02.03.2017 19:18 7,9 C 8,3 C 6,1 C 73 % 0 lf 1013,3 hPa 0,0 l/m 0 min 0 min 0 W/m 20,9 km/h (4 Bft) 95,74 %
02.03.2017 19:20 7,9 C 8,3 C 6,1 C 73 % 0 lf 1013,5 hPa 0,0 l/m 0 min 0 min 0 W/m 20,9 km/h (4 Bft) 95,74 %
02.03.2017 19:22 7,9 C 8,3 C 6,1 C 73 % 0 lf 1013,5 hPa 0,0 l/m 0 min 0 min 0 W/m 14,6 km/h (3 Bft) 91,30 %
02.03.2017 19:24 7,9 C 8,3 C 6,1 C 73 % 0 lf 1013,4 hPa 0,0 l/m 0 min 0 min 0 W/m 18,8 km/h (3 Bft) 93,62 %
02.03.2017 19:26 7,9 C 8,3 C 6,1 C 73 % 0 lf 1013,5 hPa 0,0 l/m 0 min 0 min 0 W/m 20,9 km/h (4 Bft) 91,49 %
02.03.2017 19:28 7,9 C 7,8 C 6,1 C 73 % 0 lf 1013,5 hPa 0,0 l/m 0 min 0 min 0 W/m 18,8 km/h (3 Bft) 95,74 %
02.03.2017 19:30 7,9 C 7,8 C 6,1 C 73 % 0 lf 1013,4 hPa 0,0 l/m 0 min 0 min 0 W/m 18,8 km/h (3 Bft) 93,62 %
02.03.2017 19:32 7,9 C 7,8 C 6,1 C 73 % 0 lf 1013,5 hPa 0,0 l/m 0 min 0 min 0 W/m 20,9 km/h (4 Bft) 91,49 %
02.03.2017 19:34 7,9 C 7,8 C 6,1 C 73 % 0 lf 1013,5 hPa 0,0 l/m 0 min 0 min 0 W/m 16,7 km/h (3 Bft) 95,65 %
02.03.2017 19:36 7,9 C 7,8 C 6,1 C 73 % 0 lf 1013,6 hPa 0,0 l/m 0 min 0 min 0 W/m 16,7 km/h (3 Bft) 93,62 %
02.03.2017 19:38 7,9 C 7,8 C 6,1 C 73 % 0 lf 1013,6 hPa 0,0 l/m 0 min 0 min 0 W/m 12,6 km/h (3 Bft) 93,62 %
02.03.2017 19:40 7,9 C 7,8 C 6,1 C 73 % 0 lf 1013,6 hPa 0,0 l/m 0 min 0 min 0 W/m 20,9 km/h (4 Bft) 95,74 %
02.03.2017 19:42 7,9 C 7,8 C 6,1 C 73 % 0 lf 1013,6 hPa 0,0 l/m 0 min 0 min 0 W/m 18,8 km/h (3 Bft) 93,62 %
02.03.2017 19:44 7,9 C 7,8 C 6,1 C 73 % 0 lf 1013,7 hPa 0,0 l/m 0 min 0 min 0 W/m 25,1 km/h (4 Bft) 95,65 %
02.03.2017 19:46 7,9 C 7,8 C 6,1 C 73 % 0 lf 1013,7 hPa 0,0 l/m 0 min 0 min 0 W/m 23,0 km/h (4 Bft) 91,49 %
02.03.2017 19:48 7,9 C 7,8 C 6,1 C 73 % 0 lf 1013,7 hPa 0,0 l/m 0 min 0 min 0 W/m 20,9 km/h (4 Bft) 95,74 %
02.03.2017 19:50 7,9 C 7,8 C 6,1 C 73 % 0 lf 1013,9 hPa 0,0 l/m 0 min 0 min 0 W/m 18,8 km/h (3 Bft) 95,74 %
02.03.2017 19:52 7,9 C 7,8 C 6,1 C 73 % 0 lf 1013,8 hPa 0,0 l/m 0 min 0 min 0 W/m 20,9 km/h (4 Bft) 93,62 %
02.03.2017 19:54 7,9 C 7,8 C 6,1 C 73 % 0 lf 1013,9 hPa 0,0 l/m 0 min 0 min 0 W/m 18,8 km/h (3 Bft) 95,74 %
02.03.2017 19:56 7,9 C 7,8 C 6,1 C 73 % 0 lf 1013,9 hPa 0,0 l/m 0 min 0 min 0 W/m 23,0 km/h (4 Bft) 95,65 %
02.03.2017 19:58 7,8 C 7,8 C 6,1 C 73 % 0 lf 1013,9 hPa 0,0 l/m 0 min 0 min 0 W/m 20,9 km/h (4 Bft) 95,74 %
02.03.2017 20:00 7,8 C 7,8 C 6,1 C 73 % 0 lf 1013,9 hPa 0,0 l/m 0 min 0 min 0 W/m 16,7 km/h (3 Bft) 100,00 %
02.03.2017 20:02 7,8 C 7,8 C 6,1 C 73 % 0 lf 1013,8 hPa 0,0 l/m 0 min 0 min 0 W/m 29,3 km/h (5 Bft) 97,87 %
02.03.2017 20:04 7,8 C 7,8 C 6,1 C 73 % 0 lf 1013,9 hPa 0,0 l/m 0 min 0 min 0 W/m 20,9 km/h (4 Bft) 95,74 %
02.03.2017 20:06 7,8 C 7,8 C 6,1 C 73 % 0 lf 1014,0 hPa 0,0 l/m 0 min 0 min 0 W/m 18,8 km/h (3 Bft) 97,87 %
02.03.2017 20:08 7,8 C 7,8 C 5,6 C 73 % 0 lf 1014,0 hPa 0,0 l/m 0 min 0 min 0 W/m 18,8 km/h (3 Bft) 97,83 %
02.03.2017 20:10 7,7 C 7,8 C 5,6 C 73 % 0 lf 1014,0 hPa 0,0 l/m 0 min 0 min 0 W/m 16,7 km/h (3 Bft) 100,00 %
02.03.2017 20:12 7,7 C 7,8 C 5,6 C 73 % 0 lf 1014,0 hPa 0,0 l/m 0 min 0 min 0 W/m 25,1 km/h (4 Bft) 100,00 %
02.03.2017 20:14 7,7 C 7,8 C 5,6 C 73 % 0 lf 1014,0 hPa 0,0 l/m 0 min 0 min 0 W/m 20,9 km/h (4 Bft) 100,00 %
02.03.2017 20:16 7,7 C 7,8 C 5,6 C 73 % 0 lf 1013,9 hPa 0,0 l/m 0 min 0 min 0 W/m 23,0 km/h (4 Bft) 95,74 %
02.03.2017 20:18 7,7 C 7,8 C 5,6 C 73 % 0 lf 1013,9 hPa 0,0 l/m 0 min 0 min 0 W/m 16,7 km/h (3 Bft) 97,87 %
02.03.2017 20:20 7,7 C 7,8 C 5,6 C 73 % 0 lf 1014,0 hPa 0,0 l/m 0 min 0 min 1 W/m 16,7 km/h (3 Bft) 97,83 %
02.03.2017 20:22 7,6 C 7,2 C 5,6 C 73 % 0 lf 1014,0 hPa 0,0 l/m 0 min 0 min 2 W/m 14,6 km/h (3 Bft) 95,74 %
02.03.2017 20:24 7,6 C 7,2 C 5,6 C 74 % 0 lf 1014,0 hPa 0,0 l/m 0 min 0 min 2 W/m 14,6 km/h (3 Bft) 97,87 %
02.03.2017 20:26 7,6 C 7,2 C 5,6 C 74 % 0 lf 1014,0 hPa 0,0 l/m 0 min 0 min 2 W/m 16,7 km/h (3 Bft) 97,87 %
02.03.2017 20:28 7,6 C 7,2 C 5,6 C 74 % 0 lf 1014,0 hPa 0,0 l/m 0 min 0 min 2 W/m 16,7 km/h (3 Bft) 97,87 %
02.03.2017 20:30 7,5 C 7,2 C 5,6 C 74 % 0 lf 1014,1 hPa 0,0 l/m 0 min 0 min 2 W/m 16,7 km/h (3 Bft) 97,83 %
02.03.2017 20:32 7,5 C 7,2 C 5,0 C 74 % 0 lf 1014,1 hPa 0,0 l/m 0 min 0 min 2 W/m 14,6 km/h (3 Bft) 100,00 %
02.03.2017 20:34 7,4 C 7,2 C 5,0 C 74 % 0 lf 1014,1 hPa 0,0 l/m 0 min 0 min 2 W/m 14,6 km/h (3 Bft) 97,87 %
02.03.2017 20:36 7,4 C 6,7 C 5,0 C 74 % 0 lf 1014,1 hPa 0,0 l/m 0 min 0 min 4 W/m 14,6 km/h (3 Bft) 97,87 %
02.03.2017 20:38 7,4 C 6,7 C 5,0 C 74 % 0 lf 1014,1 hPa 0,0 l/m 0 min 0 min 2 W/m 14,6 km/h (3 Bft) 95,74 %
02.03.2017 20:40 7,3 C 6,7 C 5,0 C 74 % 0 lf 1014,2 hPa 0,0 l/m 0 min 0 min 2 W/m 12,6 km/h (3 Bft) 97,87 %
02.03.2017 20:42 7,3 C 6,7 C 5,0 C 74 % 0 lf 1014,2 hPa 0,0 l/m 0 min 0 min 2 W/m 10,5 km/h (2 Bft) 97,83 %
02.03.2017 20:44 7,3 C 6,7 C 4,4 C 74 % 0 lf 1014,1 hPa 0,0 l/m 0 min 0 min 3 W/m 10,5 km/h (2 Bft) 93,62 %
02.03.2017 20:46 7,3 C 6,7 C 4,4 C 74 % 0 lf 1014,2 hPa 0,0 l/m 0 min 0 min 3 W/m 12,6 km/h (3 Bft) 93,62 %
02.03.2017 20:48 7,2 C 6,7 C 4,4 C 74 % 0 lf 1014,2 hPa 0,0 l/m 0 min 0 min 3 W/m 16,7 km/h (3 Bft) 95,74 %
02.03.2017 20:50 7,2 C 6,7 C 4,4 C 74 % 0 lf 1014,1 hPa 0,0 l/m 0 min 0 min 0 W/m 16,7 km/h (3 Bft) 97,87 %
02.03.2017 20:52 7,1 C 6,7 C 4,4 C 75 % 0 lf 1014,1 hPa 0,0 l/m 0 min 0 min 0 W/m 8,4 km/h (2 Bft) 95,74 %
02.03.2017 20:54 7,1 C 6,1 C 4,4 C 75 % 0 lf 1014,1 hPa 0,0 l/m 0 min 0 min 0 W/m 10,5 km/h (2 Bft) 97,83 %
02.03.2017 20:56 7,0 C 6,7 C 4,4 C 75 % 0 lf 1014,1 hPa 0,0 l/m 0 min 0 min 0 W/m 14,6 km/h (3 Bft) 97,87 %
02.03.2017 20:58 7,0 C 6,1 C 4,4 C 75 % 0 lf 1014,2 hPa 0,0 l/m 0 min 0 min 0 W/m 10,5 km/h (2 Bft) 95,74 %
02.03.2017 21:00 6,9 C 6,1 C 4,4 C 75 % 0 lf 1014,2 hPa 0,0 l/m 0 min 0 min 0 W/m 10,5 km/h (2 Bft) 97,87 %
02.03.2017 21:02 6,9 C 6,1 C 4,4 C 75 % 0 lf 1014,1 hPa 0,0 l/m 0 min 0 min 0 W/m 18,8 km/h (3 Bft) 97,87 %
02.03.2017 21:04 6,9 C 6,1 C 4,4 C 75 % 0 lf 1014,1 hPa 0,0 l/m 0 min 0 min 0 W/m 14,6 km/h (3 Bft) 97,87 %
02.03.2017 21:06 6,8 C 6,1 C 4,4 C 75 % 0 lf 1014,1 hPa 0,0 l/m 0 min 0 min 0 W/m 12,6 km/h (3 Bft) 97,83 %
02.03.2017 21:08 6,8 C 6,1 C 4,4 C 75 % 0 lf 1014,2 hPa 0,0 l/m 0 min 0 min 0 W/m 14,6 km/h (3 Bft) 95,74 %
02.03.2017 21:10 6,8 C 6,1 C 4,4 C 75 % 0 lf 1014,2 hPa 0,0 l/m 0 min 0 min 0 W/m 23,0 km/h (4 Bft) 97,87 %
02.03.2017 21:12 6,8 C 6,1 C 3,9 C 75 % 0 lf 1014,2 hPa 0,0 l/m 0 min 0 min 0 W/m 12,6 km/h (3 Bft) 100,00 %
02.03.2017 21:14 6,7 C 6,1 C 3,9 C 75 % 0 lf 1014,3 hPa 0,0 l/m 0 min 0 min 0 W/m 14,6 km/h (3 Bft) 100,00 %
02.03.2017 21:16 6,7 C 6,1 C 3,9 C 75 % 0 lf 1014,3 hPa 0,0 l/m 0 min 0 min 0 W/m 12,6 km/h (3 Bft) 97,87 %
02.03.2017 21:18 6,7 C 6,1 C 3,9 C 76 % 0 lf 1014,3 hPa 0,0 l/m 0 min 0 min 0 W/m 16,7 km/h (3 Bft) 97,83 %
02.03.2017 21:20 6,7 C 6,1 C 3,9 C 76 % 0 lf 1014,3 hPa 0,0 l/m 0 min 0 min 0 W/m 14,6 km/h (3 Bft) 97,87 %
02.03.2017 21:22 6,6 C 6,1 C 3,9 C 76 % 0 lf 1014,3 hPa 0,0 l/m 0 min 0 min 0 W/m 14,6 km/h (3 Bft) 100,00 %
02.03.2017 21:24 6,6 C 6,1 C 3,9 C 76 % 0 lf 1014,3 hPa 0,0 l/m 0 min 0 min 0 W/m 14,6 km/h (3 Bft) 100,00 %
02.03.2017 21:26 6,6 C 6,1 C 3,9 C 76 % 0 lf 1014,3 hPa 0,0 l/m 0 min 0 min 0 W/m 12,6 km/h (3 Bft) 91,49 %
02.03.2017 21:28 6,6 C 6,1 C 3,9 C 76 % 0 lf 1014,3 hPa 0,0 l/m 0 min 0 min 0 W/m 10,5 km/h (2 Bft) 95,74 %
02.03.2017 21:30 6,5 C 6,1 C 3,9 C 76 % 0 lf 1014,3 hPa 0,0 l/m 0 min 0 min 0 W/m 8,4 km/h (2 Bft) 100,00 %
02.03.2017 21:32 6,5 C 6,1 C 3,9 C 76 % 0 lf 1014,2 hPa 0,0 l/m 0 min 0 min 0 W/m 12,6 km/h (3 Bft) 97,87 %
02.03.2017 21:34 6,5 C 6,1 C 3,9 C 76 % 0 lf 1014,2 hPa 0,0 l/m 0 min 0 min 0 W/m 10,5 km/h (2 Bft) 97,87 %
02.03.2017 21:36 6,4 C 5,6 C 3,3 C 76 % 0 lf 1014,3 hPa 0,0 l/m 0 min 0 min 0 W/m 6,3 km/h (2 Bft) 95,74 %
02.03.2017 21:38 6,4 C 5,6 C 3,3 C 76 % 0 lf 1014,3 hPa 0,0 l/m 0 min 0 min 0 W/m 10,5 km/h (2 Bft) 100,00 %
02.03.2017 21:40 6,4 C 5,6 C 3,3 C 76 % 0 lf 1014,4 hPa 0,0 l/m 0 min 0 min 0 W/m 12,6 km/h (3 Bft) 100,00 %
02.03.2017 21:42 6,4 C 5,6 C 3,3 C 76 % 0 lf 1014,4 hPa 0,0 l/m 0 min 0 min 0 W/m 10,5 km/h (2 Bft) 97,83 %
02.03.2017 21:44 6,4 C 5,6 C 3,3 C 76 % 0 lf 1014,4 hPa 0,0 l/m 0 min 0 min 0 W/m 12,6 km/h (3 Bft) 95,74 %
02.03.2017 21:46 6,3 C 5,6 C 3,9 C 76 % 0 lf 1014,5 hPa 0,0 l/m 0 min 0 min 0 W/m 12,6 km/h (3 Bft) 97,87 %
02.03.2017 21:48 6,3 C 5,6 C 3,9 C 76 % 0 lf 1014,4 hPa 0,0 l/m 0 min 0 min 0 W/m 14,6 km/h (3 Bft) 100,00 %
02.03.2017 21:50 6,3 C 5,6 C 3,9 C 77 % 0 lf 1014,4 hPa 0,0 l/m 0 min 0 min 0 W/m 10,5 km/h (2 Bft) 97,87 %
02.03.2017 21:52 6,2 C 5,6 C 3,9 C 77 % 0 lf 1014,3 hPa 0,0 l/m 0 min 0 min 0 W/m 12,6 km/h (3 Bft) 97,83 %
02.03.2017 21:54 6,2 C 6,1 C 3,9 C 77 % 0 lf 1014,4 hPa 0,0 l/m 0 min 0 min 0 W/m 12,6 km/h (3 Bft) 93,62 %
02.03.2017 21:56 6,2 C 6,1 C 3,9 C 77 % 0 lf 1014,4 hPa 0,0 l/m 0 min 0 min 0 W/m 10,5 km/h (2 Bft) 93,62 %
02.03.2017 21:58 6,2 C 6,1 C 3,9 C 77 % 0 lf 1014,4 hPa 0,0 l/m 0 min 0 min 0 W/m 12,6 km/h (3 Bft) 97,87 %
02.03.2017 22:00 6,2 C 5,6 C 3,9 C 77 % 0 lf 1014,4 hPa 0,0 l/m 0 min 0 min 0 W/m 14,6 km/h (3 Bft) 97,87 %
02.03.2017 22:02 6,2 C 6,1 C 3,9 C 77 % 0 lf 1014,5 hPa 0,0 l/m 0 min 0 min 0 W/m 12,6 km/h (3 Bft) 93,62 %
02.03.2017 22:04 6,1 C 6,1 C 3,3 C 77 % 0 lf 1014,5 hPa 0,0 l/m 0 min 0 min 2 W/m 8,4 km/h (2 Bft) 95,65 %
02.03.2017 22:06 6,1 C 6,1 C 3,9 C 77 % 0 lf 1014,5 hPa 0,0 l/m 0 min 0 min 0 W/m 14,6 km/h (3 Bft) 95,74 %
02.03.2017 22:08 6,1 C 6,1 C 3,3 C 77 % 0 lf 1014,5 hPa 0,0 l/m 0 min 0 min 0 W/m 16,7 km/h (3 Bft) 91,49 %
02.03.2017 22:10 6,1 C 6,1 C 3,3 C 77 % 0 lf 1014,5 hPa 0,0 l/m 0 min 0 min 0 W/m 10,5 km/h (2 Bft) 95,74 %
02.03.2017 22:12 6,1 C 5,6 C 3,9 C 77 % 0 lf 1014,5 hPa 0,0 l/m 0 min 0 min 0 W/m 12,6 km/h (3 Bft) 91,49 %
02.03.2017 22:14 6,1 C 5,6 C 3,3 C 77 % 0 lf 1014,6 hPa 0,0 l/m 0 min 0 min 0 W/m 12,6 km/h (3 Bft) 91,49 %
02.03.2017 22:16 6,1 C 6,1 C 3,9 C 77 % 0 lf 1014,5 hPa 0,0 l/m 0 min 0 min 0 W/m 16,7 km/h (3 Bft) 95,65 %
02.03.2017 22:18 6,1 C 6,1 C 3,9 C 77 % 0 lf 1014,5 hPa 0,0 l/m 0 min 0 min 1 W/m 14,6 km/h (3 Bft) 89,36 %
02.03.2017 22:20 6,0 C 6,1 C 3,3 C 77 % 0 lf 1014,6 hPa 0,0 l/m 0 min 0 min 0 W/m 12,6 km/h (3 Bft) 91,49 %
02.03.2017 22:22 6,0 C 6,1 C 3,9 C 77 % 0 lf 1014,6 hPa 0,0 l/m 0 min 0 min 0 W/m 12,6 km/h (3 Bft) 91,49 %
02.03.2017 22:24 6,0 C 6,1 C 3,3 C 77 % 0 lf 1014,6 hPa 0,0 l/m 0 min 0 min 0 W/m 10,5 km/h (2 Bft) 85,11 %
02.03.2017 22:26 6,0 C 6,1 C 3,9 C 77 % 0 lf 1014,6 hPa 0,0 l/m 0 min 0 min 0 W/m 14,6 km/h (3 Bft) 89,36 %
02.03.2017 22:28 6,0 C 6,1 C 3,9 C 78 % 0 lf 1014,6 hPa 0,0 l/m 0 min 0 min 1 W/m 14,6 km/h (3 Bft) 91,30 %
02.03.2017 22:30 6,0 C 6,1 C 3,9 C 78 % 0 lf 1014,6 hPa 0,0 l/m 0 min 0 min 1 W/m 12,6 km/h (3 Bft) 87,23 %
02.03.2017 22:32 6,0 C 5,6 C 3,3 C 78 % 0 lf 1014,6 hPa 0,0 l/m 0 min 0 min 2 W/m 14,6 km/h (3 Bft) 91,49 %
02.03.2017 22:34 5,9 C 6,1 C 3,3 C 78 % 0 lf 1014,6 hPa 0,0 l/m 0 min 0 min 0 W/m 10,5 km/h (2 Bft) 95,74 %
02.03.2017 22:36 5,9 C 6,1 C 3,9 C 78 % 0 lf 1014,6 hPa 0,0 l/m 0 min 0 min 0 W/m 20,9 km/h (4 Bft) 89,36 %
02.03.2017 22:38 5,9 C 6,1 C 3,9 C 78 % 0 lf 1014,6 hPa 0,0 l/m 0 min 0 min 0 W/m 12,6 km/h (3 Bft) 93,62 %
02.03.2017 22:40 5,9 C 5,6 C 3,9 C 78 % 0 lf 1014,7 hPa 0,0 l/m 0 min 0 min 0 W/m 10,5 km/h (2 Bft) 93,48 %
02.03.2017 22:42 5,9 C 5,6 C 3,3 C 78 % 0 lf 1014,7 hPa 0,0 l/m 0 min 0 min 0 W/m 8,4 km/h (2 Bft) 93,62 %
02.03.2017 22:44 5,9 C 5,6 C 3,3 C 78 % 0 lf 1014,7 hPa 0,0 l/m 0 min 0 min 0 W/m 10,5 km/h (2 Bft) 93,62 %
02.03.2017 22:46 5,9 C 5,6 C 3,9 C 78 % 0 lf 1014,7 hPa 0,0 l/m 0 min 0 min 0 W/m 14,6 km/h (3 Bft) 91,49 %
02.03.2017 22:48 5,9 C 5,6 C 3,9 C 78 % 0 lf 1014,7 hPa 0,0 l/m 0 min 0 min 0 W/m 12,6 km/h (3 Bft) 93,62 %
02.03.2017 22:50 5,9 C 5,6 C 3,3 C 78 % 0 lf 1014,8 hPa 0,0 l/m 0 min 0 min 0 W/m 8,4 km/h (2 Bft) 93,48 %
02.03.2017 22:52 5,9 C 5,6 C 3,3 C 78 % 0 lf 1014,7 hPa 0,0 l/m 0 min 0 min 0 W/m 14,6 km/h (3 Bft) 87,23 %
02.03.2017 22:54 5,9 C 5,6 C 3,9 C 78 % 0 lf 1014,7 hPa 0,0 l/m 0 min 0 min 0 W/m 14,6 km/h (3 Bft) 87,23 %
02.03.2017 22:56 5,9 C 5,6 C 3,9 C 78 % 0 lf 1014,7 hPa 0,0 l/m 0 min 0 min 0 W/m 12,6 km/h (3 Bft) 93,62 %
02.03.2017 22:58 5,9 C 5,6 C 3,9 C 78 % 0 lf 1014,6 hPa 0,0 l/m 0 min 0 min 0 W/m 12,6 km/h (3 Bft) 97,87 %
02.03.2017 23:00 5,9 C 5,6 C 3,9 C 78 % 0 lf 1014,7 hPa 0,0 l/m 0 min 0 min 0 W/m 18,8 km/h (3 Bft) 95,74 %
02.03.2017 23:02 5,9 C 5,6 C 3,3 C 78 % 0 lf 1014,7 hPa 0,0 l/m 0 min 0 min 0 W/m 10,5 km/h (2 Bft) 95,74 %
02.03.2017 23:04 5,9 C 5,6 C 3,3 C 78 % 0 lf 1014,8 hPa 0,0 l/m 0 min 0 min 0 W/m 14,6 km/h (3 Bft) 97,83 %
02.03.2017 23:06 5,9 C 5,6 C 3,3 C 78 % 0 lf 1014,8 hPa 0,0 l/m 0 min 0 min 0 W/m 10,5 km/h (2 Bft) 95,74 %
02.03.2017 23:08 5,8 C 5,6 C 3,3 C 78 % 0 lf 1014,8 hPa 0,0 l/m 0 min 0 min 0 W/m 8,4 km/h (2 Bft) 91,49 %
02.03.2017 23:10 5,8 C 5,6 C 3,3 C 78 % 0 lf 1014,7 hPa 0,0 l/m 0 min 0 min 0 W/m 10,5 km/h (2 Bft) 97,87 %
02.03.2017 23:12 5,8 C 5,6 C 3,3 C 78 % 0 lf 1014,7 hPa 0,0 l/m 0 min 0 min 0 W/m 12,6 km/h (3 Bft) 95,74 %
02.03.2017 23:14 5,8 C 5,6 C 3,3 C 78 % 0 lf 1014,8 hPa 0,0 l/m 0 min 0 min 0 W/m 8,4 km/h (2 Bft) 93,48 %
02.03.2017 23:16 5,8 C 5,6 C 3,3 C 78 % 0 lf 1014,6 hPa 0,0 l/m 0 min 0 min 0 W/m 16,7 km/h (3 Bft) 95,74 %
02.03.2017 23:18 5,8 C 5,6 C 3,3 C 79 % 0 lf 1014,6 hPa 0,0 l/m 0 min 0 min 0 W/m 12,6 km/h (3 Bft) 97,87 %
02.03.2017 23:20 5,7 C 5,6 C 3,3 C 79 % 0 lf 1014,7 hPa 0,0 l/m 0 min 0 min 0 W/m 12,6 km/h (3 Bft) 93,62 %
02.03.2017 23:22 5,7 C 5,6 C 3,3 C 79 % 0 lf 1014,7 hPa 0,0 l/m 0 min 0 min 0 W/m 10,5 km/h (2 Bft) 95,74 %
02.03.2017 23:24 5,7 C 5,6 C 3,3 C 79 % 0 lf 1014,7 hPa 0,0 l/m 0 min 0 min 0 W/m 14,6 km/h (3 Bft) 97,87 %
02.03.2017 23:26 5,7 C 5,6 C 2,8 C 79 % 0 lf 1014,7 hPa 0,0 l/m 0 min 0 min 0 W/m 10,5 km/h (2 Bft) 93,48 %
02.03.2017 23:28 5,7 C 5,0 C 3,3 C 79 % 0 lf 1014,7 hPa 0,0 l/m 0 min 0 min 0 W/m 10,5 km/h (2 Bft) 95,74 %
02.03.2017 23:30 5,7 C 5,0 C 2,8 C 79 % 0 lf 1014,7 hPa 0,0 l/m 0 min 0 min 0 W/m 14,6 km/h (3 Bft) 100,00 %
02.03.2017 23:32 5,6 C 5,0 C 2,8 C 79 % 0 lf 1014,8 hPa 0,0 l/m 0 min 0 min 0 W/m 10,5 km/h (2 Bft) 97,87 %
02.03.2017 23:34 5,6 C 5,0 C 2,8 C 79 % 0 lf 1014,7 hPa 0,0 l/m 0 min 0 min 0 W/m 12,6 km/h (3 Bft) 97,87 %
02.03.2017 23:36 5,6 C 5,0 C 2,8 C 79 % 0 lf 1014,8 hPa 0,0 l/m 0 min 0 min 0 W/m 6,3 km/h (2 Bft) 100,00 %
02.03.2017 23:38 5,6 C 5,0 C 2,8 C 79 % 0 lf 1014,7 hPa 0,0 l/m 0 min 0 min 0 W/m 10,5 km/h (2 Bft) 97,83 %
02.03.2017 23:40 5,5 C 5,0 C 2,8 C 79 % 0 lf 1014,8 hPa 0,0 l/m 0 min 0 min 0 W/m 10,5 km/h (2 Bft) 100,00 %
02.03.2017 23:42 5,5 C 5,0 C 2,8 C 79 % 0 lf 1014,8 hPa 0,0 l/m 0 min 0 min 0 W/m 12,6 km/h (3 Bft) 95,74 %
02.03.2017 23:44 5,5 C 5,0 C 2,8 C 79 % 0 lf 1014,7 hPa 0,0 l/m 0 min 0 min 0 W/m 10,5 km/h (2 Bft) 89,36 %
02.03.2017 23:46 5,4 C 5,0 C 2,2 C 80 % 0 lf 1014,7 hPa 0,0 l/m 0 min 0 min 0 W/m 8,4 km/h (2 Bft) 97,87 %
02.03.2017 23:48 5,4 C 5,0 C 2,8 C 80 % 0 lf 1014,6 hPa 0,0 l/m 0 min 0 min 0 W/m 8,4 km/h (2 Bft) 97,87 %
02.03.2017 23:50 5,4 C 5,0 C 2,2 C 80 % 0 lf 1014,6 hPa 0,0 l/m 0 min 0 min 0 W/m 6,3 km/h (2 Bft) 97,83 %
02.03.2017 23:52 5,4 C 5,0 C 2,2 C 80 % 0 lf 1014,6 hPa 0,0 l/m 0 min 0 min 0 W/m 8,4 km/h (2 Bft) 97,87 %
02.03.2017 23:54 5,4 C 5,0 C 2,2 C 80 % 0 lf 1014,7 hPa 0,0 l/m 0 min 0 min 0 W/m 8,4 km/h (2 Bft) 97,87 %
02.03.2017 23:56 5,3 C 5,0 C 2,2 C 80 % 0 lf 1014,7 hPa 0,0 l/m 0 min 0 min 0 W/m 8,4 km/h (2 Bft) 97,87 %
02.03.2017 23:58 5,3 C 5,0 C 2,2 C 80 % 0 lf 1014,8 hPa 0,0 l/m 0 min 0 min 0 W/m 8,4 km/h (2 Bft) 100,00 %
_ Min-Zeit 23:56 23:28 23:46 08:58 03:58 00:00 - - - - 21:36 22:24
Minimum _ 5,3 C 5,0 C 2,2 C 68 % 0 lf 996,6 hPa - - - - 6,3 km/h (2 Bft) 85,11 %
_ Max-Zeit 15:10 15:02 14:58 00:00 00:00 22:50 00:12 08:54 00:02 15:10 05:32 00:02
Maximum _ 9,2 C 15,0 C 9,4 C 98 % 15 lf 1014,8 hPa 0,2 l/m 2 min 2 min 566 W/m 81,6 km/h
W (9 Bft)
100,00 %
Durchschnitt _ 7,3 C 7,5 C 5,8 C 77 % 3 lf 1006,5 hPa #1,4 l/m #1:10 h #2:50 h 96 W/m 33,5 km/h (5 Bft) 95,85 %
© 2017 W. Hausmann